Wetterdaten: Dienstag, 21.03.2017
Datum Zeit Temp. A. Feuchte A. Luftdruck Regen Wind Richtung Richtung Sonnenschein ET UV Solar Taupunkt Windchill Windben Empfang
21.03.2017 00:00 6,8 C 96 % 1009,3 hPa 0,0 l/m 3,4 km/h (1 Bft) SO 130 0 min 0,000 mm 0,0 UV-I 0 W/m 6,2 C 6,8 C 4,8 km/h (1 Bft) 96,00 %
21.03.2017 00:02 6,8 C 96 % 1009,2 hPa 0,0 l/m 2,2 km/h (1 Bft) SO 130 0 min 0,000 mm 0,0 UV-I 0 W/m 6,2 C 6,8 C 3,2 km/h (1 Bft) 92,11 %
21.03.2017 00:04 6,8 C 96 % 1009,3 hPa 0,0 l/m 3,1 km/h (1 Bft) SO 130 0 min 0,000 mm 0,0 UV-I 0 W/m 6,2 C 6,8 C 4,8 km/h (1 Bft) 91,67 %
21.03.2017 00:06 6,8 C 96 % 1009,3 hPa 0,0 l/m 1,3 km/h (1 Bft) SO 130 0 min 0,000 mm 0,0 UV-I 0 W/m 6,2 C 6,8 C 3,2 km/h (1 Bft) 94,64 %
21.03.2017 00:08 6,9 C 96 % 1009,4 hPa 0,0 l/m 2,5 km/h (1 Bft) SO 130 0 min 0,000 mm 0,0 UV-I 0 W/m 6,3 C 6,9 C 4,8 km/h (1 Bft) 95,74 %
21.03.2017 00:10 6,9 C 96 % 1009,3 hPa 0,0 l/m 3,1 km/h (1 Bft) SO 130 0 min 0,000 mm 0,0 UV-I 0 W/m 6,3 C 6,9 C 4,8 km/h (1 Bft) 98,00 %
21.03.2017 00:12 6,8 C 96 % 1009,3 hPa 0,0 l/m 2,2 km/h (1 Bft) SO 130 0 min 0,000 mm 0,0 UV-I 0 W/m 6,2 C 6,8 C 3,2 km/h (1 Bft) 90,00 %
21.03.2017 00:14 6,8 C 96 % 1009,3 hPa 0,0 l/m 2,4 km/h (1 Bft) SO 130 0 min 0,000 mm 0,0 UV-I 0 W/m 6,2 C 6,8 C 4,8 km/h (1 Bft) 94,74 %
21.03.2017 00:16 6,7 C 96 % 1009,3 hPa 0,0 l/m 2,2 km/h (1 Bft) SO 130 0 min 0,000 mm 0,0 UV-I 0 W/m 6,1 C 6,7 C 3,2 km/h (1 Bft) 92,00 %
21.03.2017 00:18 6,7 C 96 % 1009,3 hPa 0,0 l/m 1,9 km/h (1 Bft) SO 130 0 min 0,000 mm 0,0 UV-I 0 W/m 6,1 C 6,7 C 3,2 km/h (1 Bft) 87,50 %
21.03.2017 00:20 6,8 C 96 % 1009,2 hPa 0,0 l/m 2,7 km/h (1 Bft) SO 131 0 min 0,000 mm 0,0 UV-I 0 W/m 6,2 C 6,8 C 4,8 km/h (1 Bft) 97,37 %
21.03.2017 00:22 6,9 C 96 % 1009,2 hPa 0,0 l/m 3,3 km/h (1 Bft) SO 143 0 min 0,000 mm 0,0 UV-I 0 W/m 6,3 C 6,9 C 6,4 km/h (2 Bft) 87,23 %
21.03.2017 00:24 7,1 C 97 % 1009,2 hPa 0,0 l/m 2,7 km/h (1 Bft) SO 143 0 min 0,000 mm 0,0 UV-I 0 W/m 6,7 C 7,1 C 4,8 km/h (1 Bft) 93,62 %
21.03.2017 00:26 7,1 C 97 % 1009,2 hPa 0,0 l/m 1,9 km/h (1 Bft) SO 143 0 min 0,000 mm 0,0 UV-I 0 W/m 6,7 C 7,1 C 3,2 km/h (1 Bft) 93,62 %
21.03.2017 00:28 7,2 C 96 % 1009,2 hPa 0,0 l/m 2,4 km/h (1 Bft) SO 144 0 min 0,000 mm 0,0 UV-I 0 W/m 6,6 C 7,2 C 4,8 km/h (1 Bft) 91,49 %
21.03.2017 00:30 7,3 C 96 % 1009,2 hPa 0,0 l/m 1,3 km/h (1 Bft) SO 144 0 min 0,000 mm 0,0 UV-I 0 W/m 6,7 C 7,3 C 3,2 km/h (1 Bft) 93,18 %
21.03.2017 00:32 7,3 C 97 % 1009,2 hPa 0,0 l/m 1,7 km/h (1 Bft) SO 144 0 min 0,000 mm 0,0 UV-I 0 W/m 6,9 C 7,3 C 4,8 km/h (1 Bft) 94,34 %
21.03.2017 00:34 7,3 C 96 % 1009,1 hPa 0,0 l/m 2,0 km/h (1 Bft) SO 144 0 min 0,000 mm 0,0 UV-I 0 W/m 6,7 C 7,3 C 4,8 km/h (1 Bft) 96,00 %
21.03.2017 00:36 7,3 C 96 % 1009,2 hPa 0,0 l/m 2,9 km/h (1 Bft) SO 144 0 min 0,000 mm 0,0 UV-I 0 W/m 6,7 C 7,3 C 4,8 km/h (1 Bft) 94,74 %
21.03.2017 00:38 7,3 C 96 % 1009,1 hPa 0,0 l/m 3,2 km/h (1 Bft) SO 146 0 min 0,000 mm 0,0 UV-I 0 W/m 6,7 C 7,3 C 4,8 km/h (1 Bft) 92,86 %
21.03.2017 00:40 7,3 C 96 % 1009,1 hPa 0,0 l/m 2,7 km/h (1 Bft) SO 146 0 min 0,000 mm 0,0 UV-I 0 W/m 6,7 C 7,3 C 6,4 km/h (2 Bft) 96,23 %
21.03.2017 00:42 7,3 C 96 % 1009,1 hPa 0,0 l/m 3,2 km/h (1 Bft) S-SO 167 0 min 0,000 mm 0,0 UV-I 0 W/m 6,7 C 7,3 C 9,7 km/h (2 Bft) 98,18 %
21.03.2017 00:44 7,4 C 96 % 1009,1 hPa 0,0 l/m 4,8 km/h (1 Bft) S 176 0 min 0,000 mm 0,0 UV-I 0 W/m 6,8 C 7,4 C 8,0 km/h (2 Bft) 95,24 %
21.03.2017 00:46 7,4 C 96 % 1009,2 hPa 0,0 l/m 5,3 km/h (1 Bft) S 188 0 min 0,000 mm 0,0 UV-I 0 W/m 6,8 C 7,4 C 8,0 km/h (2 Bft) 96,15 %
21.03.2017 00:48 7,4 C 96 % 1009,1 hPa 0,0 l/m 3,8 km/h (1 Bft) S 183 0 min 0,000 mm 0,0 UV-I 0 W/m 6,8 C 7,4 C 6,4 km/h (2 Bft) 100,00 %
21.03.2017 00:50 7,4 C 96 % 1009,1 hPa 0,0 l/m 4,7 km/h (1 Bft) S-SW 194 0 min 0,000 mm 0,0 UV-I 0 W/m 6,8 C 7,4 C 9,7 km/h (2 Bft) 100,00 %
21.03.2017 00:52 7,4 C 96 % 1009,2 hPa 0,0 l/m 2,9 km/h (1 Bft) S-SW 194 0 min 0,000 mm 0,0 UV-I 0 W/m 6,8 C 7,4 C 4,8 km/h (1 Bft) 94,34 %
21.03.2017 00:54 7,3 C 96 % 1009,1 hPa 0,0 l/m 3,3 km/h (1 Bft) S 170 0 min 0,000 mm 0,0 UV-I 0 W/m 6,7 C 7,3 C 6,4 km/h (2 Bft) 97,37 %
21.03.2017 00:56 7,3 C 96 % 1009,2 hPa 0,0 l/m 3,6 km/h (1 Bft) S 169 0 min 0,000 mm 0,0 UV-I 0 W/m 6,7 C 7,3 C 8,0 km/h (2 Bft) 100,00 %
21.03.2017 00:58 7,2 C 96 % 1009,2 hPa 0,0 l/m 4,3 km/h (1 Bft) S 178 0 min 0,000 mm 0,0 UV-I 0 W/m 6,6 C 7,2 C 9,7 km/h (2 Bft) 94,34 %
21.03.2017 01:00 7,3 C 96 % 1009,2 hPa 0,0 l/m 5,1 km/h (1 Bft) S 188 0 min 0,000 mm 0,0 UV-I 0 W/m 6,7 C 7,3 C 8,0 km/h (2 Bft) 100,00 %
21.03.2017 01:02 7,3 C 96 % 1009,2 hPa 0,0 l/m 3,7 km/h (1 Bft) S 181 0 min 0,000 mm 0,0 UV-I 0 W/m 6,7 C 7,3 C 6,4 km/h (2 Bft) 95,12 %
21.03.2017 01:04 7,2 C 96 % 1009,3 hPa 0,0 l/m 4,6 km/h (1 Bft) S 186 0 min 0,000 mm 0,0 UV-I 0 W/m 6,6 C 7,2 C 8,0 km/h (2 Bft) 96,23 %
21.03.2017 01:06 7,2 C 96 % 1009,3 hPa 0,0 l/m 3,8 km/h (1 Bft) S 182 0 min 0,000 mm 0,0 UV-I 0 W/m 6,6 C 7,2 C 6,4 km/h (2 Bft) 97,73 %
21.03.2017 01:08 7,1 C 96 % 1009,3 hPa 0,0 l/m 4,6 km/h (1 Bft) S 185 0 min 0,000 mm 0,0 UV-I 0 W/m 6,5 C 7,1 C 6,4 km/h (2 Bft) 95,74 %
21.03.2017 01:10 7,0 C 95 % 1009,3 hPa 0,0 l/m 3,2 km/h (1 Bft) S 185 0 min 0,000 mm 0,0 UV-I 0 W/m 6,3 C 7,0 C 4,8 km/h (1 Bft) 100,00 %
21.03.2017 01:12 6,9 C 95 % 1009,4 hPa 0,0 l/m 4,3 km/h (1 Bft) S-SW 196 0 min 0,000 mm 0,0 UV-I 0 W/m 6,2 C 6,9 C 6,4 km/h (2 Bft) 98,11 %
21.03.2017 01:14 6,9 C 96 % 1009,4 hPa 0,0 l/m 5,5 km/h (1 Bft) SW 220 0 min 0,000 mm 0,0 UV-I 0 W/m 6,3 C 6,9 C 8,0 km/h (2 Bft) 100,00 %
21.03.2017 01:16 7,0 C 96 % 1009,4 hPa 0,0 l/m 6,6 km/h (2 Bft) SW 234 0 min 0,000 mm 0,0 UV-I 0 W/m 6,4 C 6,9 C 8,0 km/h (2 Bft) 94,64 %
21.03.2017 01:18 7,0 C 96 % 1009,4 hPa 0,0 l/m 4,9 km/h (1 Bft) SW 228 0 min 0,000 mm 0,0 UV-I 0 W/m 6,4 C 7,0 C 8,0 km/h (2 Bft) 100,00 %
21.03.2017 01:20 7,0 C 96 % 1009,3 hPa 0,0 l/m 4,9 km/h (1 Bft) SW 221 0 min 0,000 mm 0,0 UV-I 0 W/m 6,4 C 7,0 C 6,4 km/h (2 Bft) 95,74 %
21.03.2017 01:22 6,9 C 95 % 1009,3 hPa 0,0 l/m 5,5 km/h (1 Bft) S-SW 208 0 min 0,000 mm 0,0 UV-I 0 W/m 6,2 C 6,9 C 8,0 km/h (2 Bft) 97,22 %
21.03.2017 01:24 6,8 C 96 % 1009,3 hPa 0,0 l/m 4,6 km/h (1 Bft) SW 217 0 min 0,000 mm 0,0 UV-I 0 W/m 6,2 C 6,8 C 8,0 km/h (2 Bft) 100,00 %
21.03.2017 01:26 6,9 C 96 % 1009,3 hPa 0,0 l/m 5,3 km/h (1 Bft) S-SW 206 0 min 0,000 mm 0,0 UV-I 0 W/m 6,3 C 6,9 C 8,0 km/h (2 Bft) 96,23 %
21.03.2017 01:28 7,0 C 96 % 1009,3 hPa 0,0 l/m 4,8 km/h (1 Bft) S-SW 207 0 min 0,000 mm 0,0 UV-I 0 W/m 6,4 C 7,0 C 8,0 km/h (2 Bft) 95,45 %
21.03.2017 01:30 7,1 C 96 % 1009,2 hPa 0,0 l/m 2,2 km/h (1 Bft) S-SW 205 0 min 0,000 mm 0,0 UV-I 0 W/m 6,5 C 7,1 C 4,8 km/h (1 Bft) 92,00 %
21.03.2017 01:32 7,1 C 96 % 1009,3 hPa 0,0 l/m 3,6 km/h (1 Bft) S-SW 205 0 min 0,000 mm 0,0 UV-I 0 W/m 6,5 C 7,1 C 6,4 km/h (2 Bft) 95,74 %
21.03.2017 01:34 7,1 C 96 % 1009,2 hPa 0,0 l/m 2,2 km/h (1 Bft) S-SW 205 0 min 0,000 mm 0,0 UV-I 0 W/m 6,5 C 7,1 C 4,8 km/h (1 Bft) 95,12 %
21.03.2017 01:36 7,1 C 96 % 1009,3 hPa 0,0 l/m 3,2 km/h (1 Bft) S-SW 205 0 min 0,000 mm 0,0 UV-I 0 W/m 6,5 C 7,1 C 6,4 km/h (2 Bft) 97,87 %
21.03.2017 01:38 7,0 C 96 % 1009,3 hPa 0,0 l/m 4,5 km/h (1 Bft) S-SW 208 0 min 0,000 mm 0,0 UV-I 0 W/m 6,4 C 7,0 C 6,4 km/h (2 Bft) 98,11 %
21.03.2017 01:40 7,1 C 96 % 1009,4 hPa 0,0 l/m 4,8 km/h (1 Bft) SW 234 0 min 0,000 mm 0,0 UV-I 0 W/m 6,5 C 7,1 C 8,0 km/h (2 Bft) 97,14 %
21.03.2017 01:42 7,1 C 96 % 1009,4 hPa 0,0 l/m 5,2 km/h (1 Bft) SW 234 0 min 0,000 mm 0,0 UV-I 0 W/m 6,5 C 7,1 C 6,4 km/h (2 Bft) 96,00 %
21.03.2017 01:44 7,2 C 96 % 1009,5 hPa 0,0 l/m 4,7 km/h (1 Bft) SW 234 0 min 0,000 mm 0,0 UV-I 0 W/m 6,6 C 7,2 C 6,4 km/h (2 Bft) 100,00 %
21.03.2017 01:46 7,3 C 96 % 1009,5 hPa 0,0 l/m 6,8 km/h (2 Bft) W-SW 240 0 min 0,000 mm 0,0 UV-I 0 W/m 6,7 C 7,0 C 9,7 km/h (2 Bft) 96,00 %
21.03.2017 01:48 7,3 C 96 % 1009,5 hPa 0,0 l/m 9,3 km/h (2 Bft) SW 232 0 min 0,000 mm 0,0 UV-I 0 W/m 6,7 C 5,1 C 14,5 km/h (3 Bft) 100,00 %
21.03.2017 01:50 7,2 C 96 % 1009,5 hPa 0,0 l/m 7,5 km/h (2 Bft) SW 236 0 min 0,000 mm 0,0 UV-I 0 W/m 6,6 C 6,3 C 9,7 km/h (2 Bft) 97,87 %
21.03.2017 01:52 7,3 C 96 % 1009,6 hPa 0,0 l/m 7,1 km/h (2 Bft) SW 229 0 min 0,000 mm 0,0 UV-I 0 W/m 6,7 C 6,7 C 9,7 km/h (2 Bft) 100,00 %
21.03.2017 01:54 7,2 C 96 % 1009,7 hPa 0,0 l/m 7,2 km/h (2 Bft) SW 219 0 min 0,000 mm 0,0 UV-I 0 W/m 6,6 C 6,5 C 9,7 km/h (2 Bft) 100,00 %
21.03.2017 01:56 7,3 C 96 % 1009,7 hPa 0,0 l/m 7,9 km/h (2 Bft) SW 223 0 min 0,000 mm 0,0 UV-I 0 W/m 6,7 C 6,1 C 12,9 km/h (3 Bft) 98,00 %
21.03.2017 01:58 7,3 C 96 % 1009,5 hPa 0,0 l/m 6,4 km/h (2 Bft) SW 233 0 min 0,000 mm 0,0 UV-I 0 W/m 6,7 C 7,3 C 8,0 km/h (2 Bft) 100,00 %
21.03.2017 02:00 7,4 C 96 % 1009,5 hPa 0,0 l/m 5,4 km/h (1 Bft) W-SW 244 0 min 0,000 mm 0,0 UV-I 0 W/m 6,8 C 7,4 C 9,7 km/h (2 Bft) 98,00 %
21.03.2017 02:02 7,4 C 96 % 1009,6 hPa 0,0 l/m 7,3 km/h (2 Bft) SW 233 0 min 0,000 mm 0,0 UV-I 0 W/m 6,8 C 6,7 C 11,3 km/h (2 Bft) 100,00 %
21.03.2017 02:04 7,5 C 96 % 1009,7 hPa 0,0 l/m 10,2 km/h (2 Bft) SW 222 0 min 0,000 mm 0,0 UV-I 0 W/m 6,9 C 4,7 C 14,5 km/h (3 Bft) 97,62 %
21.03.2017 02:06 7,6 C 96 % 1009,7 hPa 0,0 l/m 8,0 km/h (2 Bft) SW 232 0 min 0,000 mm 0,0 UV-I 0 W/m 7,0 C 6,3 C 14,5 km/h (3 Bft) 97,87 %
21.03.2017 02:08 7,6 C 96 % 1009,7 hPa 0,0 l/m 6,7 km/h (2 Bft) SW 231 0 min 0,000 mm 0,0 UV-I 0 W/m 7,0 C 7,4 C 11,3 km/h (2 Bft) 98,21 %
21.03.2017 02:10 7,7 C 96 % 1009,6 hPa 0,0 l/m 7,9 km/h (2 Bft) SW 223 0 min 0,000 mm 0,0 UV-I 0 W/m 7,1 C 6,5 C 11,3 km/h (2 Bft) 97,37 %
21.03.2017 02:12 7,7 C 96 % 1009,6 hPa 0,0 l/m 6,8 km/h (2 Bft) SW 236 0 min 0,000 mm 0,0 UV-I 0 W/m 7,1 C 7,4 C 11,3 km/h (2 Bft) 100,00 %
21.03.2017 02:14 7,8 C 95 % 1009,5 hPa 0,0 l/m 5,8 km/h (2 Bft) SW 221 0 min 0,000 mm 0,0 UV-I 0 W/m 7,0 C 7,8 C 9,7 km/h (2 Bft) 95,12 %
21.03.2017 02:16 7,8 C 95 % 1009,6 hPa 0,0 l/m 6,0 km/h (2 Bft) S-SW 202 0 min 0,000 mm 0,0 UV-I 0 W/m 7,0 C 7,8 C 8,0 km/h (2 Bft) 100,00 %
21.03.2017 02:18 7,7 C 95 % 1009,6 hPa 0,0 l/m 6,8 km/h (2 Bft) SW 229 0 min 0,000 mm 0,0 UV-I 0 W/m 7,0 C 7,4 C 9,7 km/h (2 Bft) 89,47 %
21.03.2017 02:20 7,7 C 95 % 1009,6 hPa 0,0 l/m 5,8 km/h (2 Bft) W-SW 240 0 min 0,000 mm 0,0 UV-I 0 W/m 7,0 C 7,7 C 8,0 km/h (2 Bft) 97,37 %
21.03.2017 02:22 7,7 C 95 % 1009,6 hPa 0,0 l/m 5,7 km/h (1 Bft) SW 225 0 min 0,000 mm 0,0 UV-I 0 W/m 7,0 C 7,7 C 8,0 km/h (2 Bft) 95,38 %
21.03.2017 02:24 7,7 C 95 % 1009,6 hPa 0,0 l/m 6,8 km/h (2 Bft) W-SW 248 0 min 0,000 mm 0,0 UV-I 0 W/m 7,0 C 7,4 C 12,9 km/h (3 Bft) 95,45 %
21.03.2017 02:26 7,7 C 95 % 1009,6 hPa 0,0 l/m 6,8 km/h (2 Bft) W-SW 257 0 min 0,000 mm 0,0 UV-I 0 W/m 7,0 C 7,4 C 11,3 km/h (2 Bft) 97,37 %
21.03.2017 02:28 7,7 C 95 % 1009,6 hPa 0,0 l/m 5,7 km/h (1 Bft) W 273 0 min 0,000 mm 0,0 UV-I 0 W/m 7,0 C 7,7 C 9,7 km/h (2 Bft) 90,57 %
21.03.2017 02:30 7,7 C 95 % 1009,6 hPa 0,0 l/m 5,2 km/h (1 Bft) W-SW 254 0 min 0,000 mm 0,0 UV-I 0 W/m 7,0 C 7,7 C 8,0 km/h (2 Bft) 94,00 %
21.03.2017 02:32 7,7 C 95 % 1009,6 hPa 0,0 l/m 6,4 km/h (2 Bft) W 269 0 min 0,000 mm 0,0 UV-I 0 W/m 7,0 C 7,7 C 11,3 km/h (2 Bft) 96,00 %
21.03.2017 02:34 7,8 C 95 % 1009,6 hPa 0,0 l/m 4,7 km/h (1 Bft) W-SW 258 0 min 0,000 mm 0,0 UV-I 0 W/m 7,0 C 7,8 C 9,7 km/h (2 Bft) 94,74 %
21.03.2017 02:36 7,8 C 95 % 1009,7 hPa 0,0 l/m 5,5 km/h (1 Bft) W 273 0 min 0,000 mm 0,0 UV-I 0 W/m 7,0 C 7,8 C 9,7 km/h (2 Bft) 96,43 %
21.03.2017 02:38 7,9 C 95 % 1009,7 hPa 0,0 l/m 8,4 km/h (2 Bft) W-SW 252 0 min 0,000 mm 0,0 UV-I 0 W/m 7,1 C 6,4 C 14,5 km/h (3 Bft) 95,12 %
21.03.2017 02:40 7,9 C 95 % 1009,8 hPa 0,0 l/m 7,1 km/h (2 Bft) W 267 0 min 0,000 mm 0,0 UV-I 0 W/m 7,1 C 7,3 C 11,3 km/h (2 Bft) 98,00 %
21.03.2017 02:42 8,1 C 95 % 1009,8 hPa 0,0 l/m 8,5 km/h (2 Bft) W 265 0 min 0,000 mm 0,0 UV-I 0 W/m 7,3 C 6,5 C 11,3 km/h (2 Bft) 90,48 %
21.03.2017 02:44 8,1 C 95 % 1009,8 hPa 0,0 l/m 6,9 km/h (2 Bft) W 264 0 min 0,000 mm 0,0 UV-I 0 W/m 7,3 C 7,7 C 11,3 km/h (2 Bft) 93,10 %
21.03.2017 02:46 8,2 C 95 % 1009,9 hPa 0,0 l/m 7,1 km/h (2 Bft) W-SW 253 0 min 0,000 mm 0,0 UV-I 0 W/m 7,4 C 7,7 C 11,3 km/h (2 Bft) 92,42 %
21.03.2017 02:48 8,2 C 94 % 1009,8 hPa 0,0 l/m 9,5 km/h (2 Bft) W-SW 242 0 min 0,000 mm 0,0 UV-I 0 W/m 7,3 C 5,9 C 12,9 km/h (3 Bft) 95,12 %
21.03.2017 02:50 8,3 C 95 % 1009,8 hPa 0,0 l/m 9,8 km/h (2 Bft) SW 215 0 min 0,000 mm 0,0 UV-I 0 W/m 7,5 C 5,8 C 14,5 km/h (3 Bft) 96,43 %
21.03.2017 02:52 8,3 C 94 % 1009,8 hPa 0,0 l/m 7,0 km/h (2 Bft) SW 227 0 min 0,000 mm 0,0 UV-I 0 W/m 7,4 C 7,8 C 11,3 km/h (2 Bft) 93,10 %
21.03.2017 02:54 8,4 C 94 % 1009,8 hPa 0,0 l/m 8,0 km/h (2 Bft) W-SW 244 0 min 0,000 mm 0,0 UV-I 0 W/m 7,5 C 7,2 C 11,3 km/h (2 Bft) 97,06 %
21.03.2017 02:56 8,5 C 94 % 1009,8 hPa 0,0 l/m 8,8 km/h (2 Bft) W-SW 252 0 min 0,000 mm 0,0 UV-I 0 W/m 7,6 C 6,7 C 14,5 km/h (3 Bft) 95,12 %
21.03.2017 02:58 8,6 C 93 % 1009,8 hPa 0,0 l/m 8,5 km/h (2 Bft) W-SW 243 0 min 0,000 mm 0,0 UV-I 0 W/m 7,5 C 7,0 C 14,5 km/h (3 Bft) 100,00 %
21.03.2017 03:00 8,7 C 93 % 1009,8 hPa 0,0 l/m 11,4 km/h (2 Bft) SW 220 0 min 0,000 mm 0,0 UV-I 0 W/m 7,6 C 5,3 C 16,1 km/h (3 Bft) 97,73 %
21.03.2017 03:02 8,7 C 93 % 1009,8 hPa 0,0 l/m 10,0 km/h (2 Bft) SW 223 0 min 0,000 mm 0,0 UV-I 0 W/m 7,6 C 6,2 C 14,5 km/h (3 Bft) 97,73 %
21.03.2017 03:04 8,8 C 92 % 1009,8 hPa 0,0 l/m 10,1 km/h (2 Bft) W-SW 238 0 min 0,000 mm 0,0 UV-I 0 W/m 7,6 C 6,2 C 16,1 km/h (3 Bft) 98,11 %
21.03.2017 03:06 8,8 C 92 % 1009,8 hPa 0,0 l/m 6,4 km/h (2 Bft) W-SW 246 0 min 0,000 mm 0,0 UV-I 0 W/m 7,6 C 8,8 C 9,7 km/h (2 Bft) 97,56 %
21.03.2017 03:08 8,8 C 92 % 1009,8 hPa 0,0 l/m 7,6 km/h (2 Bft) W-SW 242 0 min 0,000 mm 0,0 UV-I 0 W/m 7,6 C 7,9 C 12,9 km/h (3 Bft) 97,73 %
21.03.2017 03:10 8,8 C 92 % 1009,9 hPa 0,0 l/m 8,5 km/h (2 Bft) S-SW 207 0 min 0,000 mm 0,0 UV-I 0 W/m 7,6 C 7,2 C 11,3 km/h (2 Bft) 98,00 %
21.03.2017 03:12 8,8 C 92 % 1009,8 hPa 0,0 l/m 10,3 km/h (2 Bft) SW 221 0 min 0,000 mm 0,0 UV-I 0 W/m 7,6 C 6,1 C 14,5 km/h (3 Bft) 97,87 %
21.03.2017 03:14 8,9 C 91 % 1009,8 hPa 0,0 l/m 10,2 km/h (2 Bft) SW 217 0 min 0,000 mm 0,0 UV-I 0 W/m 7,5 C 6,3 C 17,7 km/h (3 Bft) 95,45 %
21.03.2017 03:16 8,9 C 91 % 1009,8 hPa 0,0 l/m 10,0 km/h (2 Bft) S-SW 202 0 min 0,000 mm 0,0 UV-I 0 W/m 7,5 C 6,4 C 17,7 km/h (3 Bft) 100,00 %
21.03.2017 03:18 8,9 C 91 % 1009,8 hPa 0,0 l/m 12,4 km/h (3 Bft) SW 227 0 min 0,000 mm 0,0 UV-I 0 W/m 7,5 C 5,0 C 19,3 km/h (3 Bft) 98,00 %
21.03.2017 03:20 8,9 C 91 % 1009,8 hPa 0,0 l/m 13,3 km/h (3 Bft) W-SW 250 0 min 0,000 mm 0,0 UV-I 0 W/m 7,5 C 4,6 C 19,3 km/h (3 Bft) 97,87 %
21.03.2017 03:22 8,9 C 91 % 1009,8 hPa 0,0 l/m 12,2 km/h (2 Bft) SW 221 0 min 0,000 mm 0,0 UV-I 0 W/m 7,5 C 5,1 C 16,1 km/h (3 Bft) 100,00 %
21.03.2017 03:24 8,9 C 91 % 1009,9 hPa 0,0 l/m 11,5 km/h (2 Bft) SW 232 0 min 0,000 mm 0,0 UV-I 0 W/m 7,5 C 5,5 C 16,1 km/h (3 Bft) 100,00 %
21.03.2017 03:26 8,9 C 91 % 1009,8 hPa 0,0 l/m 10,0 km/h (2 Bft) S-SW 212 0 min 0,000 mm 0,0 UV-I 0 W/m 7,5 C 6,4 C 14,5 km/h (3 Bft) 98,11 %
21.03.2017 03:28 8,9 C 91 % 1009,9 hPa 0,0 l/m 9,3 km/h (2 Bft) W-SW 241 0 min 0,000 mm 0,0 UV-I 0 W/m 7,5 C 6,8 C 16,1 km/h (3 Bft) 97,37 %
21.03.2017 03:30 8,9 C 91 % 1009,9 hPa 0,0 l/m 10,6 km/h (2 Bft) W-SW 250 0 min 0,000 mm 0,0 UV-I 0 W/m 7,5 C 6,0 C 16,1 km/h (3 Bft) 97,37 %
21.03.2017 03:32 8,9 C 91 % 1009,8 hPa 0,0 l/m 10,6 km/h (2 Bft) W-SW 246 0 min 0,000 mm 0,0 UV-I 0 W/m 7,5 C 6,0 C 16,1 km/h (3 Bft) 98,11 %
21.03.2017 03:34 8,9 C 91 % 1009,9 hPa 0,0 l/m 11,4 km/h (2 Bft) SW 219 0 min 0,000 mm 0,0 UV-I 0 W/m 7,5 C 5,6 C 16,1 km/h (3 Bft) 100,00 %
21.03.2017 03:36 8,9 C 90 % 1009,8 hPa 0,0 l/m 11,5 km/h (2 Bft) W-SW 253 0 min 0,000 mm 0,0 UV-I 0 W/m 7,4 C 5,5 C 16,1 km/h (3 Bft) 97,73 %
21.03.2017 03:38 8,9 C 91 % 1009,9 hPa 0,0 l/m 9,0 km/h (2 Bft) W-SW 242 0 min 0,000 mm 0,0 UV-I 0 W/m 7,5 C 7,0 C 14,5 km/h (3 Bft) 98,11 %
21.03.2017 03:40 8,9 C 91 % 1009,9 hPa 0,0 l/m 13,0 km/h (3 Bft) SW 229 0 min 0,000 mm 0,0 UV-I 0 W/m 7,5 C 4,7 C 20,9 km/h (4 Bft) 100,00 %
21.03.2017 03:42 8,9 C 90 % 1010,0 hPa 0,0 l/m 13,2 km/h (3 Bft) W-SW 257 0 min 0,000 mm 0,0 UV-I 0 W/m 7,4 C 4,6 C 17,7 km/h (3 Bft) 100,00 %
21.03.2017 03:44 9,0 C 90 % 1009,9 hPa 0,0 l/m 14,5 km/h (3 Bft) W-SW 241 0 min 0,000 mm 0,0 UV-I 0 W/m 7,4 C 4,1 C 19,3 km/h (3 Bft) 97,87 %
21.03.2017 03:46 9,0 C 90 % 1010,0 hPa 0,0 l/m 13,7 km/h (3 Bft) SW 227 0 min 0,000 mm 0,0 UV-I 0 W/m 7,4 C 4,5 C 22,5 km/h (4 Bft) 100,00 %
21.03.2017 03:48 9,1 C 90 % 1010,0 hPa 0,0 l/m 11,6 km/h (2 Bft) W-SW 242 0 min 0,000 mm 0,0 UV-I 0 W/m 7,5 C 5,7 C 16,1 km/h (3 Bft) 92,00 %
21.03.2017 03:50 9,1 C 90 % 1010,0 hPa 0,0 l/m 10,5 km/h (2 Bft) SW 226 0 min 0,000 mm 0,0 UV-I 0 W/m 7,5 C 6,3 C 14,5 km/h (3 Bft) 97,56 %
21.03.2017 03:52 9,1 C 90 % 1010,0 hPa 0,0 l/m 9,5 km/h (2 Bft) W-SW 250 0 min 0,000 mm 0,0 UV-I 0 W/m 7,5 C 6,9 C 16,1 km/h (3 Bft) 96,23 %
21.03.2017 03:54 9,2 C 90 % 1010,0 hPa 0,0 l/m 11,0 km/h (2 Bft) W-SW 250 0 min 0,000 mm 0,0 UV-I 0 W/m 7,6 C 6,1 C 16,1 km/h (3 Bft) 94,00 %
21.03.2017 03:56 9,2 C 90 % 1010,1 hPa 0,0 l/m 10,3 km/h (2 Bft) SW 236 0 min 0,000 mm 0,0 UV-I 0 W/m 7,6 C 6,5 C 14,5 km/h (3 Bft) 97,37 %
21.03.2017 03:58 9,2 C 90 % 1010,1 hPa 0,0 l/m 12,3 km/h (3 Bft) W-SW 242 0 min 0,000 mm 0,0 UV-I 0 W/m 7,6 C 5,4 C 19,3 km/h (3 Bft) 93,75 %
21.03.2017 04:00 9,3 C 90 % 1010,1 hPa 0,0 l/m 12,2 km/h (2 Bft) W-SW 241 0 min 0,000 mm 0,0 UV-I 0 W/m 7,7 C 5,6 C 19,3 km/h (3 Bft) 97,87 %
21.03.2017 04:02 9,3 C 90 % 1010,1 hPa 0,0 l/m 9,8 km/h (2 Bft) W-SW 248 0 min 0,000 mm 0,0 UV-I 0 W/m 7,7 C 6,9 C 16,1 km/h (3 Bft) 96,97 %
21.03.2017 04:04 9,3 C 90 % 1010,1 hPa 0,0 l/m 12,5 km/h (3 Bft) SW 234 0 min 0,000 mm 0,0 UV-I 0 W/m 7,7 C 5,5 C 17,7 km/h (3 Bft) 94,34 %
21.03.2017 04:06 9,3 C 90 % 1010,1 hPa 0,0 l/m 12,2 km/h (2 Bft) W-SW 237 0 min 0,000 mm 0,0 UV-I 0 W/m 7,7 C 5,6 C 19,3 km/h (3 Bft) 92,68 %
21.03.2017 04:08 9,3 C 89 % 1010,2 hPa 0,0 l/m 10,7 km/h (2 Bft) SW 235 0 min 0,000 mm 0,0 UV-I 0 W/m 7,6 C 6,4 C 16,1 km/h (3 Bft) 97,73 %
21.03.2017 04:10 9,3 C 89 % 1010,2 hPa 0,0 l/m 9,3 km/h (2 Bft) W-SW 238 0 min 0,000 mm 0,0 UV-I 0 W/m 7,6 C 7,3 C 16,1 km/h (3 Bft) 96,23 %
21.03.2017 04:12 9,4 C 89 % 1010,2 hPa 0,0 l/m 10,4 km/h (2 Bft) SW 225 0 min 0,000 mm 0,0 UV-I 0 W/m 7,7 C 6,7 C 16,1 km/h (3 Bft) 98,00 %
21.03.2017 04:14 9,4 C 89 % 1010,2 hPa 0,0 l/m 10,1 km/h (2 Bft) W-SW 250 0 min 0,000 mm 0,0 UV-I 0 W/m 7,7 C 6,9 C 16,1 km/h (3 Bft) 94,74 %
21.03.2017 04:16 9,4 C 89 % 1010,2 hPa 0,0 l/m 11,1 km/h (2 Bft) W 259 0 min 0,000 mm 0,0 UV-I 0 W/m 7,7 C 6,3 C 14,5 km/h (3 Bft) 94,00 %
21.03.2017 04:18 9,4 C 89 % 1010,2 hPa 0,0 l/m 10,6 km/h (2 Bft) W-SW 238 0 min 0,000 mm 0,0 UV-I 0 W/m 7,7 C 6,6 C 16,1 km/h (3 Bft) 97,56 %
21.03.2017 04:20 9,4 C 89 % 1010,2 hPa 0,0 l/m 11,0 km/h (2 Bft) W-SW 245 0 min 0,000 mm 0,0 UV-I 0 W/m 7,7 C 6,4 C 14,5 km/h (3 Bft) 94,00 %
21.03.2017 04:22 9,5 C 89 % 1010,2 hPa 0,0 l/m 8,6 km/h (2 Bft) W 273 0 min 0,000 mm 0,0 UV-I 0 W/m 7,8 C 7,9 C 14,5 km/h (3 Bft) 96,08 %
21.03.2017 04:24 9,5 C 89 % 1010,2 hPa 0,0 l/m 10,2 km/h (2 Bft) W-SW 257 0 min 0,000 mm 0,0 UV-I 0 W/m 7,8 C 6,9 C 16,1 km/h (3 Bft) 97,37 %
21.03.2017 04:26 9,6 C 88 % 1010,3 hPa 0,0 l/m 13,2 km/h (3 Bft) W-SW 238 0 min 0,000 mm 0,0 UV-I 0 W/m 7,7 C 5,5 C 19,3 km/h (3 Bft) 96,61 %
21.03.2017 04:28 9,6 C 88 % 1010,2 hPa 0,0 l/m 11,4 km/h (2 Bft) W-SW 245 0 min 0,000 mm 0,0 UV-I 0 W/m 7,7 C 6,4 C 16,1 km/h (3 Bft) 94,29 %
21.03.2017 04:30 9,6 C 88 % 1010,2 hPa 0,0 l/m 9,1 km/h (2 Bft) W-SW 242 0 min 0,000 mm 0,0 UV-I 0 W/m 7,7 C 7,7 C 14,5 km/h (3 Bft) 93,22 %
21.03.2017 04:32 9,7 C 88 % 1010,2 hPa 0,0 l/m 10,3 km/h (2 Bft) SW 217 0 min 0,000 mm 0,0 UV-I 0 W/m 7,8 C 7,1 C 14,5 km/h (3 Bft) 90,24 %
21.03.2017 04:34 9,7 C 88 % 1010,2 hPa 0,0 l/m 11,0 km/h (2 Bft) SW 234 0 min 0,000 mm 0,0 UV-I 0 W/m 7,8 C 6,7 C 19,3 km/h (3 Bft) 90,57 %
21.03.2017 04:36 9,7 C 87 % 1010,2 hPa 0,0 l/m 11,0 km/h (2 Bft) SW 223 0 min 0,000 mm 0,0 UV-I 0 W/m 7,6 C 6,7 C 16,1 km/h (3 Bft) 93,62 %
21.03.2017 04:38 9,7 C 87 % 1010,3 hPa 0,0 l/m 10,4 km/h (2 Bft) SW 221 0 min 0,000 mm 0,0 UV-I 0 W/m 7,6 C 7,0 C 14,5 km/h (3 Bft) 93,62 %
21.03.2017 04:40 9,7 C 87 % 1010,3 hPa 0,0 l/m 8,8 km/h (2 Bft) S-SW 213 0 min 0,000 mm 0,0 UV-I 0 W/m 7,6 C 8,0 C 12,9 km/h (3 Bft) 92,86 %
21.03.2017 04:42 9,6 C 87 % 1010,3 hPa 0,0 l/m 7,9 km/h (2 Bft) S-SW 203 0 min 0,000 mm 0,0 UV-I 0 W/m 7,5 C 8,5 C 12,9 km/h (3 Bft) 95,45 %
21.03.2017 04:44 9,6 C 87 % 1010,3 hPa 0,0 l/m 11,4 km/h (2 Bft) W-SW 238 0 min 0,000 mm 0,0 UV-I 0 W/m 7,5 C 6,4 C 16,1 km/h (3 Bft) 93,62 %
21.03.2017 04:46 9,6 C 87 % 1010,3 hPa 0,0 l/m 10,1 km/h (2 Bft) W-SW 243 0 min 0,000 mm 0,0 UV-I 0 W/m 7,5 C 7,1 C 17,7 km/h (3 Bft) 94,00 %
21.03.2017 04:48 9,6 C 87 % 1010,4 hPa 0,0 l/m 8,9 km/h (2 Bft) SW 223 0 min 0,000 mm 0,0 UV-I 0 W/m 7,5 C 7,8 C 16,1 km/h (3 Bft) 91,49 %
21.03.2017 04:50 9,6 C 87 % 1010,3 hPa 0,0 l/m 9,4 km/h (2 Bft) W-SW 238 0 min 0,000 mm 0,0 UV-I 0 W/m 7,5 C 7,5 C 12,9 km/h (3 Bft) 93,18 %
21.03.2017 04:52 9,5 C 87 % 1010,3 hPa 0,0 l/m 9,7 km/h (2 Bft) W-SW 246 0 min 0,000 mm 0,0 UV-I 0 W/m 7,4 C 7,2 C 12,9 km/h (3 Bft) 95,12 %
21.03.2017 04:54 9,4 C 88 % 1010,4 hPa 0,0 l/m 10,5 km/h (2 Bft) SW 225 0 min 0,000 mm 0,0 UV-I 0 W/m 7,5 C 6,6 C 14,5 km/h (3 Bft) 94,34 %
21.03.2017 04:56 9,4 C 88 % 1010,4 hPa 0,0 l/m 9,2 km/h (2 Bft) W-SW 242 0 min 0,000 mm 0,0 UV-I 0 W/m 7,5 C 7,4 C 14,5 km/h (3 Bft) 96,23 %
21.03.2017 04:58 9,3 C 88 % 1010,5 hPa 0,0 l/m 9,1 km/h (2 Bft) SW 214 0 min 0,000 mm 0,0 UV-I 0 W/m 7,4 C 7,4 C 12,9 km/h (3 Bft) 97,37 %
21.03.2017 05:00 9,3 C 88 % 1010,4 hPa 0,0 l/m 10,7 km/h (2 Bft) SW 234 0 min 0,025 mm 0,0 UV-I 0 W/m 7,4 C 6,4 C 14,5 km/h (3 Bft) 94,74 %
21.03.2017 05:02 9,3 C 88 % 1010,4 hPa 0,0 l/m 8,5 km/h (2 Bft) SW 223 0 min 0,000 mm 0,0 UV-I 0 W/m 7,4 C 7,8 C 11,3 km/h (2 Bft) 96,43 %
21.03.2017 05:04 9,3 C 88 % 1010,4 hPa 0,0 l/m 7,5 km/h (2 Bft) W-SW 245 0 min 0,000 mm 0,0 UV-I 0 W/m 7,4 C 8,5 C 11,3 km/h (2 Bft) 94,64 %
21.03.2017 05:06 9,3 C 88 % 1010,4 hPa 0,0 l/m 9,3 km/h (2 Bft) W 263 0 min 0,000 mm 0,0 UV-I 0 W/m 7,4 C 7,3 C 14,5 km/h (3 Bft) 97,73 %
21.03.2017 05:08 9,3 C 88 % 1010,5 hPa 0,0 l/m 8,4 km/h (2 Bft) W-SW 237 0 min 0,000 mm 0,0 UV-I 0 W/m 7,4 C 7,8 C 14,5 km/h (3 Bft) 95,74 %
21.03.2017 05:10 9,3 C 88 % 1010,5 hPa 0,0 l/m 7,4 km/h (2 Bft) W-SW 244 0 min 0,000 mm 0,0 UV-I 0 W/m 7,4 C 8,6 C 11,3 km/h (2 Bft) 100,00 %
21.03.2017 05:12 9,3 C 88 % 1010,5 hPa 0,0 l/m 7,4 km/h (2 Bft) W-SW 251 0 min 0,000 mm 0,0 UV-I 0 W/m 7,4 C 8,6 C 11,3 km/h (2 Bft) 95,74 %
21.03.2017 05:14 9,3 C 88 % 1010,5 hPa 0,0 l/m 7,9 km/h (2 Bft) W-SW 249 0 min 0,000 mm 0,0 UV-I 0 W/m 7,4 C 8,2 C 11,3 km/h (2 Bft) 98,11 %
21.03.2017 05:16 9,3 C 88 % 1010,6 hPa 0,0 l/m 7,0 km/h (2 Bft) W-SW 254 0 min 0,000 mm 0,0 UV-I 0 W/m 7,4 C 8,9 C 11,3 km/h (2 Bft) 98,00 %
21.03.2017 05:18 9,3 C 88 % 1010,6 hPa 0,0 l/m 6,4 km/h (2 Bft) SW 235 0 min 0,000 mm 0,0 UV-I 0 W/m 7,4 C 9,3 C 8,0 km/h (2 Bft) 100,00 %
21.03.2017 05:20 9,3 C 88 % 1010,7 hPa 0,0 l/m 9,4 km/h (2 Bft) W 259 0 min 0,000 mm 0,0 UV-I 0 W/m 7,4 C 7,2 C 12,9 km/h (3 Bft) 98,18 %
21.03.2017 05:22 9,3 C 88 % 1010,7 hPa 0,0 l/m 8,7 km/h (2 Bft) W-SW 254 0 min 0,000 mm 0,0 UV-I 0 W/m 7,4 C 7,6 C 11,3 km/h (2 Bft) 100,00 %
21.03.2017 05:24 9,4 C 88 % 1010,7 hPa 0,0 l/m 9,0 km/h (2 Bft) W 270 0 min 0,000 mm 0,0 UV-I 0 W/m 7,5 C 7,6 C 12,9 km/h (3 Bft) 96,23 %
21.03.2017 05:26 9,4 C 88 % 1010,7 hPa 0,0 l/m 7,6 km/h (2 Bft) W-SW 254 0 min 0,000 mm 0,0 UV-I 0 W/m 7,5 C 8,5 C 11,3 km/h (2 Bft) 97,73 %
21.03.2017 05:28 9,4 C 87 % 1010,7 hPa 0,0 l/m 8,1 km/h (2 Bft) W-SW 246 0 min 0,000 mm 0,0 UV-I 0 W/m 7,3 C 8,2 C 11,3 km/h (2 Bft) 97,37 %
21.03.2017 05:30 9,4 C 87 % 1010,7 hPa 0,0 l/m 7,7 km/h (2 Bft) W-SW 238 0 min 0,000 mm 0,0 UV-I 0 W/m 7,3 C 8,4 C 12,9 km/h (3 Bft) 98,11 %
21.03.2017 05:32 9,4 C 87 % 1010,8 hPa 0,0 l/m 6,8 km/h (2 Bft) W-SW 243 0 min 0,000 mm 0,0 UV-I 0 W/m 7,3 C 9,1 C 11,3 km/h (2 Bft) 100,00 %
21.03.2017 05:34 9,5 C 87 % 1010,8 hPa 0,0 l/m 9,4 km/h (2 Bft) W 259 0 min 0,000 mm 0,0 UV-I 0 W/m 7,4 C 7,4 C 12,9 km/h (3 Bft) 98,00 %
21.03.2017 05:36 9,5 C 87 % 1010,8 hPa 0,0 l/m 8,8 km/h (2 Bft) W-SW 243 0 min 0,000 mm 0,0 UV-I 0 W/m 7,4 C 7,8 C 12,9 km/h (3 Bft) 95,12 %
21.03.2017 05:38 9,5 C 87 % 1010,9 hPa 0,0 l/m 6,3 km/h (2 Bft) W 263 0 min 0,000 mm 0,0 UV-I 0 W/m 7,4 C 9,5 C 9,7 km/h (2 Bft) 97,56 %
21.03.2017 05:40 9,5 C 86 % 1010,9 hPa 0,0 l/m 6,7 km/h (2 Bft) W 263 0 min 0,000 mm 0,0 UV-I 0 W/m 7,3 C 9,3 C 8,0 km/h (2 Bft) 97,87 %
21.03.2017 05:42 9,5 C 86 % 1010,9 hPa 0,0 l/m 7,7 km/h (2 Bft) S-SW 212 0 min 0,000 mm 0,0 UV-I 0 W/m 7,3 C 8,5 C 14,5 km/h (3 Bft) 100,00 %
21.03.2017 05:44 9,6 C 86 % 1010,9 hPa 0,0 l/m 8,1 km/h (2 Bft) W-SW 253 0 min 0,000 mm 0,0 UV-I 0 W/m 7,4 C 8,4 C 12,9 km/h (3 Bft) 100,00 %
21.03.2017 05:46 9,6 C 86 % 1010,9 hPa 0,0 l/m 5,0 km/h (1 Bft) W 263 0 min 0,000 mm 0,0 UV-I 0 W/m 7,4 C 9,6 C 9,7 km/h (2 Bft) 95,74 %
21.03.2017 05:48 9,6 C 86 % 1010,9 hPa 0,0 l/m 4,9 km/h (1 Bft) W-SW 252 0 min 0,000 mm 0,0 UV-I 0 W/m 7,4 C 9,6 C 6,4 km/h (2 Bft) 100,00 %
21.03.2017 05:50 9,6 C 86 % 1010,8 hPa 0,0 l/m 6,9 km/h (2 Bft) W 262 0 min 0,000 mm 0,0 UV-I 0 W/m 7,4 C 9,2 C 11,3 km/h (2 Bft) 96,23 %
21.03.2017 05:52 9,6 C 86 % 1010,9 hPa 0,0 l/m 5,5 km/h (1 Bft) SW 230 0 min 0,000 mm 0,0 UV-I 0 W/m 7,4 C 9,6 C 11,3 km/h (2 Bft) 97,56 %
21.03.2017 05:54 9,6 C 86 % 1011,0 hPa 0,0 l/m 4,8 km/h (1 Bft) SW 230 0 min 0,000 mm 0,0 UV-I 0 W/m 7,4 C 9,6 C 6,4 km/h (2 Bft) 96,23 %
21.03.2017 05:56 9,5 C 86 % 1011,0 hPa 0,0 l/m 4,2 km/h (1 Bft) SW 231 0 min 0,000 mm 0,0 UV-I 0 W/m 7,3 C 9,5 C 4,8 km/h (1 Bft) 98,00 %
21.03.2017 05:58 9,5 C 86 % 1011,0 hPa 0,0 l/m 3,7 km/h (1 Bft) SW 223 0 min 0,000 mm 0,0 UV-I 0 W/m 7,3 C 9,5 C 6,4 km/h (2 Bft) 100,00 %
21.03.2017 06:00 9,5 C 86 % 1011,0 hPa 0,0 l/m 6,3 km/h (2 Bft) W-SW 238 0 min 0,026 mm 0,0 UV-I 0 W/m 7,3 C 9,5 C 8,0 km/h (2 Bft) 100,00 %
21.03.2017 06:02 9,4 C 86 % 1011,0 hPa 0,0 l/m 4,6 km/h (1 Bft) SW 218 0 min 0,000 mm 0,0 UV-I 0 W/m 7,2 C 9,4 C 8,0 km/h (2 Bft) 95,74 %
21.03.2017 06:04 9,4 C 86 % 1011,0 hPa 0,0 l/m 4,5 km/h (1 Bft) SW 218 0 min 0,000 mm 0,0 UV-I 0 W/m 7,2 C 9,4 C 6,4 km/h (2 Bft) 98,11 %
21.03.2017 06:06 9,4 C 87 % 1011,0 hPa 0,0 l/m 6,2 km/h (2 Bft) SW 218 0 min 0,000 mm 0,0 UV-I 0 W/m 7,3 C 9,4 C 8,0 km/h (2 Bft) 100,00 %
21.03.2017 06:08 9,4 C 87 % 1011,1 hPa 0,0 l/m 5,4 km/h (1 Bft) SW 217 0 min 0,000 mm 0,0 UV-I 1 W/m 7,3 C 9,4 C 8,0 km/h (2 Bft) 98,00 %
21.03.2017 06:10 9,4 C 87 % 1011,1 hPa 0,0 l/m 5,4 km/h (1 Bft) SW 217 0 min 0,000 mm 0,0 UV-I 5 W/m 7,3 C 9,4 C 8,0 km/h (2 Bft) 100,00 %
21.03.2017 06:12 9,4 C 87 % 1011,1 hPa 0,0 l/m 4,7 km/h (1 Bft) SW 223 0 min 0,000 mm 0,0 UV-I 5 W/m 7,3 C 9,4 C 8,0 km/h (2 Bft) 98,21 %
21.03.2017 06:14 9,4 C 87 % 1011,2 hPa 0,0 l/m 5,9 km/h (2 Bft) SW 223 0 min 0,000 mm 0,0 UV-I 6 W/m 7,3 C 9,4 C 8,0 km/h (2 Bft) 100,00 %
21.03.2017 06:16 9,4 C 87 % 1011,3 hPa 0,0 l/m 7,1 km/h (2 Bft) SW 236 0 min 0,000 mm 0,0 UV-I 8 W/m 7,3 C 8,9 C 11,3 km/h (2 Bft) 100,00 %
21.03.2017 06:18 9,3 C 87 % 1011,3 hPa 0,0 l/m 6,9 km/h (2 Bft) SW 226 0 min 0,000 mm 0,0 UV-I 9 W/m 7,2 C 8,9 C 9,7 km/h (2 Bft) 98,11 %
21.03.2017 06:20 9,3 C 87 % 1011,2 hPa 0,0 l/m 7,0 km/h (2 Bft) SW 227 0 min 0,000 mm 0,0 UV-I 11 W/m 7,2 C 8,9 C 9,7 km/h (2 Bft) 100,00 %
21.03.2017 06:22 9,3 C 88 % 1011,3 hPa 0,0 l/m 5,7 km/h (1 Bft) W-SW 248 0 min 0,000 mm 0,0 UV-I 12 W/m 7,4 C 9,3 C 8,0 km/h (2 Bft) 98,00 %
21.03.2017 06:24 9,3 C 88 % 1011,3 hPa 0,0 l/m 6,7 km/h (2 Bft) SW 229 0 min 0,000 mm 0,0 UV-I 12 W/m 7,4 C 9,1 C 11,3 km/h (2 Bft) 100,00 %
21.03.2017 06:26 9,3 C 88 % 1011,3 hPa 0,0 l/m 6,4 km/h (2 Bft) W-SW 239 0 min 0,000 mm 0,0 UV-I 12 W/m 7,4 C 9,3 C 12,9 km/h (3 Bft) 100,00 %
21.03.2017 06:28 9,3 C 88 % 1011,3 hPa 0,0 l/m 7,4 km/h (2 Bft) SW 229 0 min 0,000 mm 0,0 UV-I 14 W/m 7,4 C 8,6 C 9,7 km/h (2 Bft) 100,00 %
21.03.2017 06:30 9,2 C 88 % 1011,3 hPa 0,0 l/m 7,1 km/h (2 Bft) SW 229 0 min 0,000 mm 0,0 UV-I 16 W/m 7,3 C 8,7 C 9,7 km/h (2 Bft) 100,00 %
21.03.2017 06:32 9,2 C 88 % 1011,3 hPa 0,0 l/m 7,3 km/h (2 Bft) SW 222 0 min 0,000 mm 0,0 UV-I 17 W/m 7,3 C 8,5 C 9,7 km/h (2 Bft) 95,24 %
21.03.2017 06:34 9,2 C 88 % 1011,4 hPa 0,0 l/m 7,0 km/h (2 Bft) W-SW 245 0 min 0,000 mm 0,0 UV-I 18 W/m 7,3 C 8,8 C 11,3 km/h (2 Bft) 95,92 %
21.03.2017 06:36 9,2 C 88 % 1011,4 hPa 0,0 l/m 7,5 km/h (2 Bft) W 267 0 min 0,000 mm 0,0 UV-I 19 W/m 7,3 C 8,4 C 11,3 km/h (2 Bft) 100,00 %
21.03.2017 06:38 9,2 C 88 % 1011,4 hPa 0,0 l/m 7,6 km/h (2 Bft) W 259 0 min 0,000 mm 0,0 UV-I 21 W/m 7,3 C 8,3 C 9,7 km/h (2 Bft) 95,92 %
21.03.2017 06:40 9,2 C 88 % 1011,4 hPa 0,0 l/m 8,7 km/h (2 Bft) W-SW 253 0 min 0,000 mm 0,0 UV-I 23 W/m 7,3 C 7,5 C 11,3 km/h (2 Bft) 100,00 %
21.03.2017 06:42 9,2 C 87 % 1011,4 hPa 0,0 l/m 7,9 km/h (2 Bft) W-SW 244 0 min 0,000 mm 0,0 UV-I 22 W/m 7,2 C 8,1 C 11,3 km/h (2 Bft) 98,00 %
21.03.2017 06:44 9,3 C 86 % 1011,4 hPa 0,0 l/m 6,3 km/h (2 Bft) W 270 0 min 0,000 mm 0,0 UV-I 21 W/m 7,1 C 9,3 C 11,3 km/h (2 Bft) 92,11 %
21.03.2017 06:46 9,3 C 86 % 1011,4 hPa 0,0 l/m 6,7 km/h (2 Bft) W-SW 245 0 min 0,000 mm 0,0 UV-I 23 W/m 7,1 C 9,1 C 11,3 km/h (2 Bft) 98,00 %
21.03.2017 06:48 9,3 C 86 % 1011,4 hPa 0,0 l/m 5,7 km/h (1 Bft) W-SW 244 0 min 0,000 mm 0,0 UV-I 23 W/m 7,1 C 9,3 C 8,0 km/h (2 Bft) 92,11 %
21.03.2017 06:50 9,3 C 86 % 1011,4 hPa 0,0 l/m 6,3 km/h (2 Bft) W 260 0 min 0,000 mm 0,0 UV-I 26 W/m 7,1 C 9,3 C 11,3 km/h (2 Bft) 95,16 %
21.03.2017 06:52 9,3 C 86 % 1011,4 hPa 0,0 l/m 4,9 km/h (1 Bft) W-SW 250 0 min 0,000 mm 0,0 UV-I 28 W/m 7,1 C 9,3 C 6,4 km/h (2 Bft) 94,74 %
21.03.2017 06:54 9,3 C 86 % 1011,4 hPa 0,0 l/m 5,9 km/h (2 Bft) SW 230 0 min 0,000 mm 0,0 UV-I 28 W/m 7,1 C 9,3 C 11,3 km/h (2 Bft) 96,43 %
21.03.2017 06:56 9,3 C 86 % 1011,4 hPa 0,0 l/m 4,9 km/h (1 Bft) W-SW 245 0 min 0,000 mm 0,0 UV-I 28 W/m 7,1 C 9,3 C 8,0 km/h (2 Bft) 97,37 %
21.03.2017 06:58 9,3 C 86 % 1011,4 hPa 0,0 l/m 5,1 km/h (1 Bft) SW 232 0 min 0,000 mm 0,0 UV-I 28 W/m 7,1 C 9,3 C 8,0 km/h (2 Bft) 96,43 %
21.03.2017 07:00 9,3 C 86 % 1011,4 hPa 0,0 l/m 5,4 km/h (1 Bft) SW 226 0 min 0,025 mm 0,0 UV-I 30 W/m 7,1 C 9,3 C 8,0 km/h (2 Bft) 91,67 %
21.03.2017 07:02 9,3 C 86 % 1011,4 hPa 0,0 l/m 5,5 km/h (1 Bft) SW 232 0 min 0,000 mm 0,0 UV-I 30 W/m 7,1 C 9,3 C 8,0 km/h (2 Bft) 98,21 %
21.03.2017 07:04 9,3 C 86 % 1011,5 hPa 0,0 l/m 6,1 km/h (2 Bft) W-SW 246 0 min 0,000 mm 0,0 UV-I 30 W/m 7,1 C 9,3 C 8,0 km/h (2 Bft) 97,56 %
21.03.2017 07:06 9,3 C 86 % 1011,5 hPa 0,0 l/m 7,1 km/h (2 Bft) W 265 0 min 0,000 mm 0,0 UV-I 31 W/m 7,1 C 8,8 C 11,3 km/h (2 Bft) 91,49 %
21.03.2017 07:08 9,3 C 85 % 1011,5 hPa 0,0 l/m 7,9 km/h (2 Bft) W-SW 246 0 min 0,000 mm 0,0 UV-I 34 W/m 6,9 C 8,2 C 12,9 km/h (3 Bft) 92,86 %
21.03.2017 07:10 9,4 C 85 % 1011,5 hPa 0,0 l/m 9,1 km/h (2 Bft) W-SW 248 0 min 0,000 mm 0,0 UV-I 36 W/m 7,0 C 7,5 C 12,9 km/h (3 Bft) 97,37 %
21.03.2017 07:12 9,4 C 84 % 1011,6 hPa 0,0 l/m 6,8 km/h (2 Bft) W 259 0 min 0,000 mm 0,0 UV-I 38 W/m 6,8 C 9,1 C 9,7 km/h (2 Bft) 92,59 %
21.03.2017 07:14 9,4 C 84 % 1011,5 hPa 0,0 l/m 6,6 km/h (2 Bft) W-SW 242 0 min 0,000 mm 0,0 UV-I 37 W/m 6,8 C 9,3 C 12,9 km/h (3 Bft) 89,47 %
21.03.2017 07:16 9,5 C 84 % 1011,5 hPa 0,0 l/m 7,6 km/h (2 Bft) W 263 0 min 0,000 mm 0,0 UV-I 37 W/m 6,9 C 8,6 C 11,3 km/h (2 Bft) 94,64 %
21.03.2017 07:18 9,5 C 83 % 1011,4 hPa 0,0 l/m 5,2 km/h (1 Bft) W-SW 250 0 min 0,000 mm 0,0 UV-I 39 W/m 6,8 C 9,5 C 8,0 km/h (2 Bft) 97,37 %
21.03.2017 07:20 9,5 C 84 % 1011,4 hPa 0,0 l/m 4,6 km/h (1 Bft) W-SW 248 0 min 0,000 mm 0,0 UV-I 41 W/m 6,9 C 9,5 C 11,3 km/h (2 Bft) 96,23 %
21.03.2017 07:22 9,5 C 83 % 1011,4 hPa 0,0 l/m 4,6 km/h (1 Bft) SW 234 0 min 0,000 mm 0,0 UV-I 42 W/m 6,8 C 9,5 C 8,0 km/h (2 Bft) 97,62 %
21.03.2017 07:24 9,6 C 83 % 1011,4 hPa 0,0 l/m 4,7 km/h (1 Bft) W-SW 241 0 min 0,000 mm 0,0 UV-I 41 W/m 6,9 C 9,6 C 6,4 km/h (2 Bft) 94,34 %
21.03.2017 07:26 9,6 C 83 % 1011,4 hPa 0,0 l/m 3,1 km/h (1 Bft) W-SW 241 0 min 0,000 mm 0,0 UV-I 40 W/m 6,9 C 9,6 C 6,4 km/h (2 Bft) 94,74 %
21.03.2017 07:28 9,6 C 83 % 1011,4 hPa 0,0 l/m 5,4 km/h (1 Bft) SW 226 0 min 0,000 mm 0,0 UV-I 43 W/m 6,9 C 9,6 C 11,3 km/h (2 Bft) 95,92 %
21.03.2017 07:30 9,6 C 83 % 1011,4 hPa 0,0 l/m 5,5 km/h (1 Bft) W 266 0 min 0,000 mm 0,0 UV-I 45 W/m 6,9 C 9,6 C 9,7 km/h (2 Bft) 100,00 %
21.03.2017 07:32 9,6 C 82 % 1011,5 hPa 0,0 l/m 5,3 km/h (1 Bft) W-SW 252 0 min 0,000 mm 0,0 UV-I 47 W/m 6,7 C 9,6 C 6,4 km/h (2 Bft) 100,00 %
21.03.2017 07:34 9,6 C 82 % 1011,5 hPa 0,0 l/m 5,3 km/h (1 Bft) W 278 0 min 0,000 mm 0,0 UV-I 49 W/m 6,7 C 9,6 C 8,0 km/h (2 Bft) 98,00 %
21.03.2017 07:36 9,6 C 83 % 1011,5 hPa 0,0 l/m 3,6 km/h (1 Bft) W 277 0 min 0,000 mm 0,0 UV-I 52 W/m 6,9 C 9,6 C 4,8 km/h (1 Bft) 97,87 %
21.03.2017 07:38 9,6 C 83 % 1011,5 hPa 0,0 l/m 4,2 km/h (1 Bft) W 277 0 min 0,000 mm 0,0 UV-I 56 W/m 6,9 C 9,6 C 6,4 km/h (2 Bft) 100,00 %
21.03.2017 07:40 9,6 C 83 % 1011,5 hPa 0,0 l/m 4,1 km/h (1 Bft) W 270 0 min 0,000 mm 0,0 UV-I 58 W/m 6,9 C 9,6 C 6,4 km/h (2 Bft) 100,00 %
21.03.2017 07:42 9,6 C 83 % 1011,5 hPa 0,0 l/m 3,4 km/h (1 Bft) W 270 0 min 0,000 mm 0,0 UV-I 61 W/m 6,9 C 9,6 C 4,8 km/h (1 Bft) 100,00 %
21.03.2017 07:44 9,6 C 83 % 1011,5 hPa 0,0 l/m 4,3 km/h (1 Bft) W 277 0 min 0,000 mm 0,0 UV-I 64 W/m 6,9 C 9,6 C 6,4 km/h (2 Bft) 97,56 %
21.03.2017 07:46 9,6 C 83 % 1011,5 hPa 0,0 l/m 3,6 km/h (1 Bft) W 275 0 min 0,000 mm 0,0 UV-I 68 W/m 6,9 C 9,6 C 4,8 km/h (1 Bft) 96,23 %
21.03.2017 07:48 9,6 C 83 % 1011,5 hPa 0,0 l/m 4,1 km/h (1 Bft) W 263 0 min 0,000 mm 0,0 UV-I 69 W/m 6,9 C 9,6 C 6,4 km/h (2 Bft) 98,11 %
21.03.2017 07:50 9,7 C 83 % 1011,5 hPa 0,0 l/m 3,7 km/h (1 Bft) W 263 0 min 0,000 mm 0,0 UV-I 68 W/m 7,0 C 9,7 C 4,8 km/h (1 Bft) 100,00 %
21.03.2017 07:52 9,7 C 83 % 1011,5 hPa 0,0 l/m 3,4 km/h (1 Bft) W 263 0 min 0,000 mm 0,0 UV-I 71 W/m 7,0 C 9,7 C 4,8 km/h (1 Bft) 96,00 %
21.03.2017 07:54 9,7 C 83 % 1011,5 hPa 0,0 l/m 3,4 km/h (1 Bft) W 263 0 min 0,000 mm 0,0 UV-I 77 W/m 7,0 C 9,7 C 4,8 km/h (1 Bft) 98,00 %
21.03.2017 07:56 9,7 C 83 % 1011,5 hPa 0,0 l/m 3,4 km/h (1 Bft) W 263 0 min 0,000 mm 0,0 UV-I 84 W/m 7,0 C 9,7 C 4,8 km/h (1 Bft) 100,00 %
21.03.2017 07:58 9,8 C 83 % 1011,5 hPa 0,0 l/m 3,3 km/h (1 Bft) W 263 0 min 0,000 mm 0,0 UV-I 87 W/m 7,1 C 9,8 C 6,4 km/h (2 Bft) 100,00 %
21.03.2017 08:00 9,8 C 83 % 1011,5 hPa 0,0 l/m 4,2 km/h (1 Bft) W 263 0 min 0,026 mm 0,0 UV-I 89 W/m 7,1 C 9,8 C 6,4 km/h (2 Bft) 91,49 %
21.03.2017 08:02 9,8 C 82 % 1011,5 hPa 0,0 l/m 6,5 km/h (2 Bft) W 264 0 min 0,000 mm 0,0 UV-I 94 W/m 6,9 C 9,8 C 11,3 km/h (2 Bft) 95,74 %
21.03.2017 08:04 9,8 C 83 % 1011,5 hPa 0,0 l/m 4,9 km/h (1 Bft) W 268 0 min 0,000 mm 0,0 UV-I 103 W/m 7,1 C 9,8 C 6,4 km/h (2 Bft) 95,74 %
21.03.2017 08:06 9,9 C 82 % 1011,5 hPa 0,0 l/m 5,5 km/h (1 Bft) W-SW 250 0 min 0,000 mm 0,0 UV-I 110 W/m 7,0 C 9,9 C 9,7 km/h (2 Bft) 96,00 %
21.03.2017 08:08 9,9 C 82 % 1011,5 hPa 0,0 l/m 7,4 km/h (2 Bft) W-SW 253 0 min 0,000 mm 0,0 UV-I 117 W/m 7,0 C 9,2 C 11,3 km/h (2 Bft) 94,34 %
21.03.2017 08:10 10,0 C 82 % 1011,5 hPa 0,0 l/m 6,1 km/h (2 Bft) W 269 0 min 0,000 mm 0,0 UV-I 126 W/m 7,1 C 10,0 C 12,9 km/h (3 Bft) 93,18 %
21.03.2017 08:12 10,1 C 82 % 1011,5 hPa 0,0 l/m 7,0 km/h (2 Bft) W 272 0 min 0,000 mm 0,0 UV-I 137 W/m 7,2 C 9,7 C 11,3 km/h (2 Bft) 95,74 %
21.03.2017 08:14 10,1 C 82 % 1011,5 hPa 0,0 l/m 5,3 km/h (1 Bft) W 279 0 min 0,000 mm 0,0 UV-I 148 W/m 7,2 C 10,1 C 9,7 km/h (2 Bft) 95,74 %
21.03.2017 08:16 10,2 C 82 % 1011,5 hPa 0,0 l/m 8,4 km/h (2 Bft) W 275 0 min 0,000 mm 0,0 UV-I 148 W/m 7,3 C 8,8 C 11,3 km/h (2 Bft) 97,56 %
21.03.2017 08:18 10,2 C 82 % 1011,4 hPa 0,0 l/m 5,4 km/h (1 Bft) W 274 0 min 0,000 mm 0,0 UV-I 149 W/m 7,3 C 10,2 C 8,0 km/h (2 Bft) 97,44 %
21.03.2017 08:20 10,2 C 80 % 1011,4 hPa 0,0 l/m 8,1 km/h (2 Bft) W 261 0 min 0,000 mm 0,0 UV-I 154 W/m 6,9 C 9,0 C 12,9 km/h (3 Bft) 98,31 %
21.03.2017 08:22 10,3 C 80 % 1011,5 hPa 0,0 l/m 5,1 km/h (1 Bft) W-NW 288 0 min 0,000 mm 0,1 UV-I 156 W/m 7,0 C 10,3 C 9,7 km/h (2 Bft) 96,00 %
21.03.2017 08:24 10,3 C 79 % 1011,4 hPa 0,0 l/m 7,6 km/h (2 Bft) W-SW 242 0 min 0,000 mm 0,5 UV-I 160 W/m 6,8 C 9,4 C 12,9 km/h (3 Bft) 95,12 %
21.03.2017 08:26 10,3 C 78 % 1011,4 hPa 0,0 l/m 10,3 km/h (2 Bft) W 277 0 min 0,000 mm 0,5 UV-I 168 W/m 6,6 C 7,8 C 16,1 km/h (3 Bft) 95,74 %
21.03.2017 08:28 10,3 C 78 % 1011,4 hPa 0,0 l/m 2,7 km/h (1 Bft) W 281 0 min 0,000 mm 0,5 UV-I 173 W/m 6,6 C 10,3 C 6,4 km/h (2 Bft) 97,87 %
21.03.2017 08:30 10,3 C 78 % 1011,4 hPa 0,0 l/m 3,1 km/h (1 Bft) NW 306 0 min 0,000 mm 0,5 UV-I 173 W/m 6,6 C 10,3 C 6,4 km/h (2 Bft) 96,23 %
21.03.2017 08:32 10,3 C 79 % 1011,4 hPa 0,0 l/m 2,7 km/h (1 Bft) W 281 0 min 0,000 mm 0,5 UV-I 176 W/m 6,8 C 10,3 C 6,4 km/h (2 Bft) 97,73 %
21.03.2017 08:34 10,4 C 78 % 1011,4 hPa 0,0 l/m 2,0 km/h (1 Bft) W-NW 287 0 min 0,000 mm 0,5 UV-I 176 W/m 6,7 C 10,4 C 3,2 km/h (1 Bft) 97,56 %
21.03.2017 08:36 10,4 C 78 % 1011,4 hPa 0,0 l/m 3,1 km/h (1 Bft) NW 306 0 min 0,000 mm 0,5 UV-I 174 W/m 6,7 C 10,4 C 8,0 km/h (2 Bft) 94,00 %
21.03.2017 08:38 10,4 C 78 % 1011,4 hPa 0,0 l/m 3,5 km/h (1 Bft) W-NW 288 0 min 0,000 mm 0,5 UV-I 172 W/m 6,7 C 10,4 C 4,8 km/h (1 Bft) 95,45 %
21.03.2017 08:40 10,4 C 78 % 1011,4 hPa 0,0 l/m 2,7 km/h (1 Bft) W-NW 287 0 min 0,000 mm 0,5 UV-I 172 W/m 6,7 C 10,4 C 8,0 km/h (2 Bft) 94,34 %
21.03.2017 08:42 10,4 C 78 % 1011,5 hPa 0,0 l/m 1,6 km/h (1 Bft) W-NW 287 0 min 0,000 mm 0,5 UV-I 171 W/m 6,7 C 10,4 C 3,2 km/h (1 Bft) 97,87 %
21.03.2017 08:44 10,5 C 78 % 1011,5 hPa 0,0 l/m 3,3 km/h (1 Bft) W-NW 300 0 min 0,000 mm 0,5 UV-I 171 W/m 6,8 C 10,5 C 11,3 km/h (2 Bft) 94,74 %
21.03.2017 08:46 10,6 C 77 % 1011,5 hPa 0,0 l/m 6,3 km/h (2 Bft) W-NW 287 0 min 0,000 mm 0,6 UV-I 176 W/m 6,7 C 10,6 C 12,9 km/h (3 Bft) 94,64 %
21.03.2017 08:48 10,6 C 78 % 1011,5 hPa 0,0 l/m 2,8 km/h (1 Bft) W-NW 287 0 min 0,000 mm 0,6 UV-I 178 W/m 6,9 C 10,6 C 4,8 km/h (1 Bft) 94,29 %
21.03.2017 08:50 10,6 C 79 % 1011,5 hPa 0,0 l/m 1,5 km/h (1 Bft) W-NW 287 0 min 0,000 mm 0,6 UV-I 179 W/m 7,1 C 10,6 C 3,2 km/h (1 Bft) 94,92 %
21.03.2017 08:52 10,7 C 79 % 1011,6 hPa 0,0 l/m 5,0 km/h (1 Bft) W-NW 294 0 min 0,000 mm 0,6 UV-I 180 W/m 7,2 C 10,7 C 11,3 km/h (2 Bft) 93,18 %
21.03.2017 08:54 10,7 C 78 % 1011,5 hPa 0,0 l/m 4,5 km/h (1 Bft) W 269 0 min 0,000 mm 0,6 UV-I 183 W/m 7,0 C 10,7 C 6,4 km/h (2 Bft) 93,18 %
21.03.2017 08:56 10,7 C 78 % 1011,6 hPa 0,0 l/m 3,9 km/h (1 Bft) W-SW 257 0 min 0,000 mm 0,6 UV-I 187 W/m 7,0 C 10,7 C 6,4 km/h (2 Bft) 93,75 %
21.03.2017 08:58 10,7 C 78 % 1011,6 hPa 0,0 l/m 8,3 km/h (2 Bft) W 274 0 min 0,000 mm 0,7 UV-I 189 W/m 7,0 C 9,4 C 14,5 km/h (3 Bft) 92,31 %
21.03.2017 09:00 10,7 C 77 % 1011,6 hPa 0,0 l/m 5,5 km/h (1 Bft) W-SW 249 0 min 0,076 mm 0,7 UV-I 194 W/m 6,8 C 10,7 C 11,3 km/h (2 Bft) 94,87 %
21.03.2017 09:02 10,8 C 77 % 1011,5 hPa 0,0 l/m 4,7 km/h (1 Bft) W 272 0 min 0,000 mm 0,7 UV-I 205 W/m 6,9 C 10,8 C 8,0 km/h (2 Bft) 92,45 %
21.03.2017 09:04 10,8 C 77 % 1011,6 hPa 0,0 l/m 2,5 km/h (1 Bft) W 272 0 min 0,000 mm 0,7 UV-I 211 W/m 6,9 C 10,8 C 4,8 km/h (1 Bft) 92,11 %
21.03.2017 09:06 10,8 C 76 % 1011,5 hPa 0,0 l/m 5,8 km/h (2 Bft) W 273 0 min 0,000 mm 0,7 UV-I 210 W/m 6,7 C 10,8 C 11,3 km/h (2 Bft) 94,34 %
21.03.2017 09:08 10,9 C 76 % 1011,5 hPa 0,0 l/m 2,6 km/h (1 Bft) W 273 0 min 0,000 mm 0,8 UV-I 213 W/m 6,8 C 10,9 C 6,4 km/h (2 Bft) 92,00 %
21.03.2017 09:10 10,9 C 75 % 1011,5 hPa 0,0 l/m 4,9 km/h (1 Bft) W 270 0 min 0,000 mm 0,8 UV-I 216 W/m 6,6 C 10,9 C 6,4 km/h (2 Bft) 95,12 %
21.03.2017 09:12 10,9 C 76 % 1011,4 hPa 0,0 l/m 3,8 km/h (1 Bft) W-NW 299 0 min 0,000 mm 0,8 UV-I 225 W/m 6,8 C 10,9 C 6,4 km/h (2 Bft) 95,12 %
21.03.2017 09:14 10,9 C 76 % 1011,4 hPa 0,0 l/m 1,6 km/h (1 Bft) W-NW 298 0 min 0,000 mm 0,8 UV-I 242 W/m 6,8 C 10,9 C 4,8 km/h (1 Bft) 90,00 %
21.03.2017 09:16 11,0 C 77 % 1011,4 hPa 0,0 l/m 2,9 km/h (1 Bft) W-NW 293 0 min 0,000 mm 0,9 UV-I 255 W/m 7,1 C 11,0 C 4,8 km/h (1 Bft) 92,86 %
21.03.2017 09:18 11,1 C 76 % 1011,4 hPa 0,0 l/m 2,4 km/h (1 Bft) W-NW 290 0 min 0,000 mm 0,9 UV-I 258 W/m 7,0 C 11,1 C 6,4 km/h (2 Bft) 95,12 %
21.03.2017 09:20 11,1 C 76 % 1011,4 hPa 0,0 l/m 3,2 km/h (1 Bft) W-NW 293 0 min 0,000 mm 0,9 UV-I 258 W/m 7,0 C 11,1 C 6,4 km/h (2 Bft) 93,62 %
21.03.2017 09:22 11,2 C 75 % 1011,4 hPa 0,0 l/m 2,7 km/h (1 Bft) W 279 0 min 0,000 mm 0,9 UV-I 255 W/m 6,9 C 11,2 C 6,4 km/h (2 Bft) 98,00 %
21.03.2017 09:24 11,2 C 75 % 1011,4 hPa 0,0 l/m 1,9 km/h (1 Bft) W 278 0 min 0,000 mm 0,9 UV-I 252 W/m 6,9 C 11,2 C 4,8 km/h (1 Bft) 100,00 %
21.03.2017 09:26 11,2 C 75 % 1011,4 hPa 0,0 l/m 2,5 km/h (1 Bft) W-NW 282 0 min 0,000 mm 0,9 UV-I 258 W/m 6,9 C 11,2 C 6,4 km/h (2 Bft) 100,00 %
21.03.2017 09:28 11,3 C 76 % 1011,4 hPa 0,0 l/m 1,1 km/h (1 Bft) W-NW 298 0 min 0,000 mm 0,9 UV-I 264 W/m 7,2 C 11,3 C 3,2 km/h (1 Bft) 100,00 %
21.03.2017 09:30 11,3 C 74 % 1011,4 hPa 0,0 l/m 4,0 km/h (1 Bft) NW 313 0 min 0,000 mm 1,0 UV-I 268 W/m 6,8 C 11,3 C 6,4 km/h (2 Bft) 100,00 %
21.03.2017 09:32 11,3 C 76 % 1011,4 hPa 0,0 l/m 1,7 km/h (1 Bft) W-NW 298 0 min 0,000 mm 1,0 UV-I 263 W/m 7,2 C 11,3 C 4,8 km/h (1 Bft) 100,00 %
21.03.2017 09:34 11,3 C 75 % 1011,4 hPa 0,0 l/m 2,0 km/h (1 Bft) W-NW 284 0 min 0,000 mm 1,0 UV-I 266 W/m 7,0 C 11,3 C 4,8 km/h (1 Bft) 100,00 %
21.03.2017 09:36 11,3 C 75 % 1011,4 hPa 0,0 l/m 3,3 km/h (1 Bft) W-SW 244 0 min 0,000 mm 1,0 UV-I 280 W/m 7,0 C 11,3 C 6,4 km/h (2 Bft) 100,00 %
21.03.2017 09:38 11,4 C 76 % 1011,3 hPa 0,0 l/m 3,1 km/h (1 Bft) W 259 2 min 0,000 mm 1,1 UV-I 293 W/m 7,3 C 11,4 C 4,8 km/h (1 Bft) 100,00 %
21.03.2017 09:40 11,6 C 78 % 1011,3 hPa 0,0 l/m 2,7 km/h (1 Bft) W 259 2 min 0,000 mm 1,1 UV-I 301 W/m 7,9 C 11,6 C 4,8 km/h (1 Bft) 100,00 %
21.03.2017 09:42 11,7 C 77 % 1011,3 hPa 0,0 l/m 2,4 km/h (1 Bft) W 268 0 min 0,000 mm 1,1 UV-I 294 W/m 7,8 C 11,7 C 6,4 km/h (2 Bft) 100,00 %
21.03.2017 09:44 11,7 C 75 % 1011,3 hPa 0,0 l/m 1,9 km/h (1 Bft) W 269 0 min 0,000 mm 1,0 UV-I 278 W/m 7,4 C 11,7 C 4,8 km/h (1 Bft) 100,00 %
21.03.2017 09:46 11,7 C 74 % 1011,3 hPa 0,0 l/m 1,6 km/h (1 Bft) W 267 0 min 0,000 mm 1,1 UV-I 275 W/m 7,2 C 11,7 C 6,4 km/h (2 Bft) 100,00 %
21.03.2017 09:48 11,7 C 75 % 1011,3 hPa 0,0 l/m 2,2 km/h (1 Bft) W 271 0 min 0,000 mm 1,1 UV-I 282 W/m 7,4 C 11,7 C 4,8 km/h (1 Bft) 98,11 %
21.03.2017 09:50 11,7 C 75 % 1011,3 hPa 0,0 l/m 1,2 km/h (1 Bft) W-NW 288 0 min 0,000 mm 1,2 UV-I 300 W/m 7,4 C 11,7 C 3,2 km/h (1 Bft) 100,00 %
21.03.2017 09:52 11,7 C 73 % 1011,3 hPa 0,0 l/m 3,6 km/h (1 Bft) W-NW 295 2 min 0,000 mm 1,3 UV-I 341 W/m 7,0 C 11,7 C 9,7 km/h (2 Bft) 98,21 %
21.03.2017 09:54 11,7 C 74 % 1011,3 hPa 0,0 l/m 4,1 km/h (1 Bft) W 268 2 min 0,000 mm 1,3 UV-I 413 W/m 7,2 C 11,7 C 6,4 km/h (2 Bft) 97,37 %
21.03.2017 09:56 11,8 C 74 % 1011,3 hPa 0,0 l/m 4,4 km/h (1 Bft) W-SW 254 2 min 0,000 mm 1,5 UV-I 440 W/m 7,3 C 11,8 C 9,7 km/h (2 Bft) 98,00 %
21.03.2017 09:58 11,8 C 73 % 1011,3 hPa 0,0 l/m 3,8 km/h (1 Bft) W-NW 292 2 min 0,000 mm 1,5 UV-I 438 W/m 7,1 C 11,8 C 11,3 km/h (2 Bft) 96,43 %
21.03.2017 10:00 11,9 C 74 % 1011,3 hPa 0,0 l/m 3,7 km/h (1 Bft) W-NW 284 2 min 0,152 mm 1,4 UV-I 416 W/m 7,4 C 11,9 C 9,7 km/h (2 Bft) 100,00 %
21.03.2017 10:02 12,0 C 74 % 1011,3 hPa 0,0 l/m 3,4 km/h (1 Bft) W 276 2 min 0,000 mm 1,4 UV-I 406 W/m 7,5 C 12,0 C 6,4 km/h (2 Bft) 100,00 %
21.03.2017 10:04 12,1 C 73 % 1011,2 hPa 0,0 l/m 4,2 km/h (1 Bft) W 264 2 min 0,000 mm 1,5 UV-I 425 W/m 7,4 C 12,1 C 9,7 km/h (2 Bft) 97,56 %
21.03.2017 10:06 12,1 C 74 % 1011,2 hPa 0,0 l/m 3,3 km/h (1 Bft) W-NW 294 2 min 0,000 mm 1,4 UV-I 385 W/m 7,6 C 12,1 C 6,4 km/h (2 Bft) 98,00 %
21.03.2017 10:08 12,2 C 74 % 1011,2 hPa 0,0 l/m 5,4 km/h (1 Bft) W-SW 253 2 min 0,000 mm 1,5 UV-I 386 W/m 7,7 C 12,2 C 11,3 km/h (2 Bft) 98,00 %
21.03.2017 10:10 12,3 C 73 % 1011,2 hPa 0,0 l/m 4,0 km/h (1 Bft) SW 235 2 min 0,000 mm 1,6 UV-I 430 W/m 7,6 C 12,3 C 8,0 km/h (2 Bft) 97,56 %
21.03.2017 10:12 12,2 C 72 % 1011,2 hPa 0,0 l/m 4,5 km/h (1 Bft) W 263 2 min 0,000 mm 1,6 UV-I 440 W/m 7,3 C 12,2 C 6,4 km/h (2 Bft) 98,11 %
21.03.2017 10:14 12,2 C 74 % 1011,2 hPa 0,0 l/m 5,0 km/h (1 Bft) W-SW 248 2 min 0,000 mm 1,6 UV-I 450 W/m 7,7 C 12,2 C 8,0 km/h (2 Bft) 100,00 %
21.03.2017 10:16 12,3 C 73 % 1011,2 hPa 0,0 l/m 3,7 km/h (1 Bft) SW 231 2 min 0,000 mm 1,7 UV-I 503 W/m 7,6 C 12,3 C 8,0 km/h (2 Bft) 100,00 %
21.03.2017 10:18 12,4 C 74 % 1011,3 hPa 0,0 l/m 5,1 km/h (1 Bft) SW 227 2 min 0,000 mm 1,8 UV-I 530 W/m 7,9 C 12,4 C 9,7 km/h (2 Bft) 100,00 %
21.03.2017 10:20 12,4 C 74 % 1011,2 hPa 0,0 l/m 6,0 km/h (2 Bft) W-SW 248 2 min 0,000 mm 1,7 UV-I 507 W/m 7,9 C 12,4 C 8,0 km/h (2 Bft) 100,00 %
21.03.2017 10:22 12,4 C 73 % 1011,2 hPa 0,0 l/m 6,0 km/h (2 Bft) W-SW 239 2 min 0,000 mm 1,6 UV-I 444 W/m 7,7 C 12,4 C 11,3 km/h (2 Bft) 98,00 %
21.03.2017 10:24 12,4 C 74 % 1011,2 hPa 0,0 l/m 8,0 km/h (2 Bft) W-SW 254 2 min 0,000 mm 1,6 UV-I 459 W/m 7,9 C 11,4 C 11,3 km/h (2 Bft) 100,00 %
21.03.2017 10:26 12,4 C 74 % 1011,2 hPa 0,0 l/m 4,5 km/h (1 Bft) SW 234 2 min 0,000 mm 1,7 UV-I 490 W/m 7,9 C 12,4 C 9,7 km/h (2 Bft) 100,00 %
21.03.2017 10:28 12,3 C 73 % 1011,2 hPa 0,0 l/m 5,3 km/h (1 Bft) W-SW 258 2 min 0,000 mm 1,7 UV-I 459 W/m 7,6 C 12,3 C 12,9 km/h (3 Bft) 100,00 %
21.03.2017 10:29 12,4 C 74 % 1011,1 hPa 0,0 l/m 7,6 km/h (2 Bft) W 269 1 min 0,000 mm 1,7 UV-I 459 W/m 7,9 C 11,6 C 11,3 km/h (2 Bft) 100,00 %
21.03.2017 10:30 12,4 C 74 % 1011,1 hPa 0,0 l/m 9,2 km/h (2 Bft) SW 219 1 min 0,000 mm 1,7 UV-I 461 W/m 7,9 C 10,7 C 12,9 km/h (3 Bft) 100,00 %
21.03.2017 10:32 12,5 C 73 % 1011,1 hPa 0,0 l/m 8,0 km/h (2 Bft) W 280 2 min 0,000 mm 1,8 UV-I 483 W/m 7,8 C 11,5 C 12,9 km/h (3 Bft) 100,00 %
21.03.2017 10:34 12,7 C 74 % 1011,1 hPa 0,0 l/m 5,5 km/h (1 Bft) SW 219 2 min 0,000 mm 1,8 UV-I 508 W/m 8,2 C 12,7 C 11,3 km/h (2 Bft) 100,00 %
21.03.2017 10:36 12,8 C 73 % 1011,1 hPa 0,0 l/m 8,2 km/h (2 Bft) W-SW 251 2 min 0,000 mm 1,9 UV-I 540 W/m 8,1 C 11,7 C 12,9 km/h (3 Bft) 100,00 %
21.03.2017 10:38 12,8 C 73 % 1011,0 hPa 0,0 l/m 6,1 km/h (2 Bft) N-NW 329 2 min 0,000 mm 2,0 UV-I 559 W/m 8,1 C 12,8 C 11,3 km/h (2 Bft) 98,31 %
21.03.2017 10:40 12,9 C 74 % 1011,1 hPa 0,0 l/m 4,2 km/h (1 Bft) W 273 2 min 0,000 mm 2,0 UV-I 537 W/m 8,4 C 12,9 C 6,4 km/h (2 Bft) 100,00 %
21.03.2017 10:42 13,0 C 72 % 1011,1 hPa 0,0 l/m 7,1 km/h (2 Bft) W 265 2 min 0,000 mm 1,8 UV-I 492 W/m 8,1 C 12,6 C 14,5 km/h (3 Bft) 94,00 %
21.03.2017 10:44 12,9 C 72 % 1011,0 hPa 0,0 l/m 4,0 km/h (1 Bft) W-NW 283 2 min 0,000 mm 1,8 UV-I 487 W/m 8,0 C 12,9 C 11,3 km/h (2 Bft) 98,21 %
21.03.2017 10:46 12,9 C 71 % 1011,1 hPa 0,0 l/m 6,8 km/h (2 Bft) W 263 2 min 0,000 mm 1,7 UV-I 472 W/m 7,8 C 12,7 C 12,9 km/h (3 Bft) 95,12 %
21.03.2017 10:48 12,8 C 71 % 1011,0 hPa 0,0 l/m 4,8 km/h (1 Bft) W 267 2 min 0,000 mm 1,8 UV-I 525 W/m 7,7 C 12,8 C 9,7 km/h (2 Bft) 94,74 %
21.03.2017 10:50 12,8 C 73 % 1011,0 hPa 0,0 l/m 7,4 km/h (2 Bft) SW 229 2 min 0,000 mm 1,8 UV-I 459 W/m 8,1 C 12,2 C 14,5 km/h (3 Bft) 98,11 %
21.03.2017 10:52 12,8 C 72 % 1010,9 hPa 0,0 l/m 6,1 km/h (2 Bft) W-SW 240 2 min 0,000 mm 1,8 UV-I 466 W/m 7,9 C 12,8 C 11,3 km/h (2 Bft) 95,45 %
21.03.2017 10:54 13,0 C 73 % 1010,9 hPa 0,0 l/m 2,4 km/h (1 Bft) W-SW 254 2 min 0,000 mm 1,9 UV-I 504 W/m 8,3 C 13,0 C 6,4 km/h (2 Bft) 96,00 %
21.03.2017 10:56 13,1 C 72 % 1010,9 hPa 0,0 l/m 2,4 km/h (1 Bft) W-SW 255 2 min 0,000 mm 1,9 UV-I 462 W/m 8,2 C 13,1 C 6,4 km/h (2 Bft) 97,44 %
21.03.2017 10:58 13,1 C 71 % 1010,9 hPa 0,0 l/m 3,4 km/h (1 Bft) W-SW 254 2 min 0,000 mm 1,7 UV-I 401 W/m 8,0 C 13,1 C 6,4 km/h (2 Bft) 97,73 %
21.03.2017 11:00 13,2 C 72 % 1010,9 hPa 0,0 l/m 4,1 km/h (1 Bft) W-SW 251 2 min 0,254 mm 1,6 UV-I 391 W/m 8,3 C 13,2 C 6,4 km/h (2 Bft) 98,21 %
21.03.2017 11:02 13,3 C 72 % 1010,9 hPa 0,0 l/m 5,2 km/h (1 Bft) W-SW 248 2 min 0,000 mm 1,6 UV-I 370 W/m 8,4 C 13,3 C 9,7 km/h (2 Bft) 98,00 %
21.03.2017 11:04 13,3 C 70 % 1010,8 hPa 0,0 l/m 5,2 km/h (1 Bft) S 176 0 min 0,000 mm 1,5 UV-I 352 W/m 7,9 C 13,3 C 8,0 km/h (2 Bft) 97,56 %
21.03.2017 11:06 13,1 C 71 % 1010,9 hPa 0,0 l/m 2,1 km/h (1 Bft) W 273 2 min 0,000 mm 1,6 UV-I 402 W/m 8,0 C 13,1 C 6,4 km/h (2 Bft) 96,00 %
21.03.2017 11:08 13,2 C 73 % 1010,9 hPa 0,0 l/m 2,5 km/h (1 Bft) W 270 2 min 0,000 mm 1,6 UV-I 401 W/m 8,5 C 13,2 C 4,8 km/h (1 Bft) 95,74 %
21.03.2017 11:10 13,4 C 74 % 1010,8 hPa 0,0 l/m 2,5 km/h (1 Bft) W 261 2 min 0,000 mm 1,7 UV-I 416 W/m 8,9 C 13,4 C 4,8 km/h (1 Bft) 97,73 %
21.03.2017 11:12 13,6 C 70 % 1010,8 hPa 0,0 l/m 7,9 km/h (2 Bft) W-NW 291 2 min 0,000 mm 1,8 UV-I 455 W/m 8,2 C 12,7 C 14,5 km/h (3 Bft) 100,00 %
21.03.2017 11:14 13,5 C 69 % 1010,9 hPa 0,0 l/m 7,6 km/h (2 Bft) W 267 2 min 0,000 mm 2,0 UV-I 473 W/m 7,9 C 12,8 C 12,9 km/h (3 Bft) 100,00 %
21.03.2017 11:16 13,4 C 70 % 1010,9 hPa 0,0 l/m 1,4 km/h (1 Bft) W-NW 287 2 min 0,000 mm 2,1 UV-I 475 W/m 8,0 C 13,4 C 4,8 km/h (1 Bft) 100,00 %
21.03.2017 11:18 13,6 C 71 % 1010,9 hPa 0,0 l/m 3,7 km/h (1 Bft) W-NW 302 2 min 0,000 mm 2,1 UV-I 446 W/m 8,4 C 13,6 C 8,0 km/h (2 Bft) 100,00 %
21.03.2017 11:20 13,7 C 70 % 1010,9 hPa 0,0 l/m 1,4 km/h (1 Bft) NW 310 2 min 0,000 mm 2,1 UV-I 456 W/m 8,3 C 13,7 C 8,0 km/h (2 Bft) 100,00 %
21.03.2017 11:22 13,7 C 70 % 1010,8 hPa 0,0 l/m 2,1 km/h (1 Bft) NW 304 2 min 0,000 mm 2,1 UV-I 475 W/m 8,3 C 13,7 C 4,8 km/h (1 Bft) 98,00 %
21.03.2017 11:24 13,8 C 71 % 1010,8 hPa 0,0 l/m 1,8 km/h (1 Bft) W 275 2 min 0,000 mm 2,1 UV-I 518 W/m 8,6 C 13,8 C 6,4 km/h (2 Bft) 100,00 %
21.03.2017 11:26 13,8 C 67 % 1010,8 hPa 0,0 l/m 6,1 km/h (2 Bft) W 269 2 min 0,000 mm 1,9 UV-I 423 W/m 7,8 C 13,8 C 9,7 km/h (2 Bft) 97,87 %
21.03.2017 11:28 13,6 C 69 % 1010,8 hPa 0,0 l/m 2,5 km/h (1 Bft) W-SW 251 2 min 0,000 mm 1,8 UV-I 371 W/m 8,0 C 13,6 C 4,8 km/h (1 Bft) 97,87 %
21.03.2017 11:30 13,6 C 68 % 1010,8 hPa 0,0 l/m 1,6 km/h (1 Bft) W-SW 251 0 min 0,000 mm 1,8 UV-I 356 W/m 7,8 C 13,6 C 4,8 km/h (1 Bft) 100,00 %
21.03.2017 11:32 13,7 C 72 % 1010,8 hPa 0,0 l/m 1,5 km/h (1 Bft) NW 311 2 min 0,000 mm 1,8 UV-I 384 W/m 8,7 C 13,7 C 4,8 km/h (1 Bft) 100,00 %
21.03.2017 11:34 13,8 C 72 % 1010,8 hPa 0,0 l/m 0,2 km/h (0 Bft) NW 311 2 min 0,000 mm 2,0 UV-I 424 W/m 8,8 C 13,8 C 1,6 km/h (1 Bft) 100,00 %
21.03.2017 11:36 13,8 C 71 % 1010,8 hPa 0,0 l/m 0,5 km/h (0 Bft) W-NW 294 2 min 0,000 mm 2,1 UV-I 459 W/m 8,6 C 13,8 C 3,2 km/h (1 Bft) 100,00 %
21.03.2017 11:38 13,9 C 73 % 1010,7 hPa 0,0 l/m 3,7 km/h (1 Bft) W-SW 254 2 min 0,000 mm 2,3 UV-I 509 W/m 9,1 C 13,9 C 12,9 km/h (3 Bft) 100,00 %
21.03.2017 11:40 13,8 C 68 % 1010,7 hPa 0,0 l/m 4,5 km/h (1 Bft) W 269 2 min 0,000 mm 2,3 UV-I 529 W/m 8,0 C 13,8 C 11,3 km/h (2 Bft) 100,00 %
21.03.2017 11:42 13,8 C 69 % 1010,7 hPa 0,0 l/m 2,2 km/h (1 Bft) NW 317 2 min 0,000 mm 2,5 UV-I 634 W/m 8,2 C 13,8 C 4,8 km/h (1 Bft) 97,87 %
21.03.2017 11:44 13,9 C 70 % 1010,7 hPa 0,0 l/m 5,3 km/h (1 Bft) W 261 2 min 0,000 mm 2,7 UV-I 571 W/m 8,5 C 13,9 C 11,3 km/h (2 Bft) 100,00 %
21.03.2017 11:46 13,9 C 67 % 1010,7 hPa 0,0 l/m 4,2 km/h (1 Bft) W 275 2 min 0,000 mm 3,1 UV-I 840 W/m 7,9 C 13,9 C 6,4 km/h (2 Bft) 100,00 %
21.03.2017 11:48 14,1 C 74 % 1010,6 hPa 0,0 l/m 3,8 km/h (1 Bft) NW 317 2 min 0,000 mm 2,9 UV-I 787 W/m 9,5 C 14,1 C 11,3 km/h (2 Bft) 100,00 %
21.03.2017 11:50 14,2 C 68 % 1010,6 hPa 0,0 l/m 3,8 km/h (1 Bft) NW 324 2 min 0,000 mm 2,5 UV-I 540 W/m 8,4 C 14,2 C 8,0 km/h (2 Bft) 95,12 %
21.03.2017 11:52 14,2 C 72 % 1010,5 hPa 0,0 l/m 3,0 km/h (1 Bft) NW 306 2 min 0,000 mm 2,5 UV-I 542 W/m 9,2 C 14,2 C 6,4 km/h (2 Bft) 100,00 %
21.03.2017 11:54 14,2 C 69 % 1010,5 hPa 0,0 l/m 5,0 km/h (1 Bft) W 268 2 min 0,000 mm 2,5 UV-I 574 W/m 8,6 C 14,2 C 11,3 km/h (2 Bft) 97,87 %
21.03.2017 11:56 14,2 C 69 % 1010,5 hPa 0,0 l/m 6,0 km/h (2 Bft) W 260 2 min 0,000 mm 2,5 UV-I 551 W/m 8,6 C 14,2 C 11,3 km/h (2 Bft) 100,00 %
21.03.2017 11:58 14,2 C 71 % 1010,4 hPa 0,0 l/m 4,2 km/h (1 Bft) NW 309 2 min 0,000 mm 2,4 UV-I 515 W/m 9,0 C 14,2 C 8,0 km/h (2 Bft) 98,21 %
21.03.2017 12:00 14,1 C 70 % 1010,4 hPa 0,0 l/m 4,3 km/h (1 Bft) N 350 2 min 0,254 mm 2,3 UV-I 456 W/m 8,7 C 14,1 C 8,0 km/h (2 Bft) 97,73 %
21.03.2017 12:02 13,9 C 68 % 1010,4 hPa 0,0 l/m 3,9 km/h (1 Bft) W-NW 295 2 min 0,000 mm 2,2 UV-I 466 W/m 8,1 C 13,9 C 6,4 km/h (2 Bft) 100,00 %
21.03.2017 12:04 13,8 C 70 % 1010,3 hPa 0,0 l/m 1,4 km/h (1 Bft) NW 320 2 min 0,000 mm 2,2 UV-I 413 W/m 8,4 C 13,8 C 4,8 km/h (1 Bft) 98,00 %
21.03.2017 12:06 13,9 C 71 % 1010,3 hPa 0,0 l/m 0,7 km/h (0 Bft) W-NW 303 2 min 0,000 mm 2,1 UV-I 411 W/m 8,7 C 13,9 C 4,8 km/h (1 Bft) 97,87 %
21.03.2017 12:08 14,0 C 70 % 1010,3 hPa 0,0 l/m 2,1 km/h (1 Bft) W-NW 289 2 min 0,000 mm 2,1 UV-I 402 W/m 8,6 C 14,0 C 6,4 km/h (2 Bft) 97,22 %
21.03.2017 12:10 13,9 C 69 % 1010,2 hPa 0,0 l/m 3,6 km/h (1 Bft) NW 307 2 min 0,000 mm 2,3 UV-I 445 W/m 8,3 C 13,9 C 6,4 km/h (2 Bft) 100,00 %
21.03.2017 12:13 13,8 C 68 % 1010,2 hPa 0,0 l/m 3,1 km/h (1 Bft) W-SW 244 3 min 0,000 mm 2,3 UV-I 464 W/m 8,0 C 13,8 C 6,4 km/h (2 Bft) 100,00 %
21.03.2017 12:14 13,8 C 69 % 1010,2 hPa 0,0 l/m 4,2 km/h (1 Bft) W-NW 299 1 min 0,000 mm 2,3 UV-I 478 W/m 8,2 C 13,8 C 9,7 km/h (2 Bft) 100,00 %
21.03.2017 12:16 13,9 C 70 % 1010,2 hPa 0,0 l/m 3,2 km/h (1 Bft) W-NW 287 2 min 0,000 mm 2,5 UV-I 519 W/m 8,5 C 13,9 C 9,7 km/h (2 Bft) 98,18 %
21.03.2017 12:18 13,9 C 69 % 1010,2 hPa 0,0 l/m 4,4 km/h (1 Bft) N-NW 337 2 min 0,000 mm 2,4 UV-I 514 W/m 8,3 C 13,9 C 6,4 km/h (2 Bft) 100,00 %
21.03.2017 12:20 13,9 C 69 % 1010,2 hPa 0,0 l/m 3,6 km/h (1 Bft) NW 306 2 min 0,000 mm 2,6 UV-I 553 W/m 8,3 C 13,9 C 8,0 km/h (2 Bft) 100,00 %
21.03.2017 12:22 13,9 C 68 % 1010,1 hPa 0,0 l/m 2,7 km/h (1 Bft) N-NW 327 2 min 0,000 mm 2,7 UV-I 623 W/m 8,1 C 13,9 C 6,4 km/h (2 Bft) 100,00 %
21.03.2017 12:24 14,0 C 70 % 1010,1 hPa 0,0 l/m 4,6 km/h (1 Bft) N-NO 17 2 min 0,000 mm 2,6 UV-I 576 W/m 8,6 C 14,0 C 8,0 km/h (2 Bft) 100,00 %
21.03.2017 12:26 14,1 C 71 % 1010,1 hPa 0,0 l/m 3,7 km/h (1 Bft) N-NO 30 2 min 0,000 mm 2,4 UV-I 515 W/m 8,9 C 14,1 C 8,0 km/h (2 Bft) 100,00 %
21.03.2017 12:28 13,9 C 68 % 1010,1 hPa 0,0 l/m 4,6 km/h (1 Bft) W-NW 302 2 min 0,000 mm 2,4 UV-I 476 W/m 8,1 C 13,9 C 11,3 km/h (2 Bft) 98,11 %
21.03.2017 12:30 13,9 C 66 % 1010,1 hPa 0,0 l/m 3,8 km/h (1 Bft) NW 321 2 min 0,000 mm 2,3 UV-I 489 W/m 7,7 C 13,9 C 9,7 km/h (2 Bft) 100,00 %
21.03.2017 12:32 13,9 C 68 % 1010,1 hPa 0,0 l/m 2,5 km/h (1 Bft) N-NO 17 2 min 0,000 mm 2,5 UV-I 565 W/m 8,1 C 13,9 C 6,4 km/h (2 Bft) 100,00 %
21.03.2017 12:34 14,0 C 71 % 1010,0 hPa 0,0 l/m 2,3 km/h (1 Bft) N-NO 15 2 min 0,000 mm 2,5 UV-I 594 W/m 8,8 C 14,0 C 6,4 km/h (2 Bft) 100,00 %
21.03.2017 12:36 14,1 C 68 % 1010,0 hPa 0,0 l/m 3,0 km/h (1 Bft) N-NO 24 2 min 0,000 mm 2,8 UV-I 638 W/m 8,3 C 14,1 C 8,0 km/h (2 Bft) 96,30 %
21.03.2017 12:38 14,2 C 70 % 1010,0 hPa 0,0 l/m 5,1 km/h (1 Bft) N-NW 335 2 min 0,000 mm 3,1 UV-I 801 W/m 8,8 C 14,2 C 9,7 km/h (2 Bft) 95,71 %
21.03.2017 12:40 14,3 C 66 % 1009,9 hPa 0,0 l/m 6,3 km/h (2 Bft) N-NW 332 2 min 0,000 mm 2,9 UV-I 805 W/m 8,0 C 14,3 C 12,9 km/h (3 Bft) 97,56 %
21.03.2017 12:42 14,3 C 66 % 1009,9 hPa 0,0 l/m 3,6 km/h (1 Bft) N-NW 340 2 min 0,000 mm 2,6 UV-I 642 W/m 8,0 C 14,3 C 6,4 km/h (2 Bft) 98,11 %
21.03.2017 12:44 14,3 C 68 % 1009,9 hPa 0,0 l/m 2,0 km/h (1 Bft) W 273 2 min 0,000 mm 2,3 UV-I 472 W/m 8,5 C 14,3 C 4,8 km/h (1 Bft) 97,56 %
21.03.2017 12:46 14,3 C 65 % 1009,9 hPa 0,0 l/m 6,3 km/h (2 Bft) NW 318 2 min 0,000 mm 2,6 UV-I 493 W/m 7,8 C 14,3 C 14,5 km/h (3 Bft) 97,73 %
21.03.2017 12:48 14,2 C 64 % 1009,9 hPa 0,0 l/m 2,4 km/h (1 Bft) W-NW 303 2 min 0,000 mm 2,5 UV-I 619 W/m 7,5 C 14,2 C 6,4 km/h (2 Bft) 98,21 %
21.03.2017 12:50 14,2 C 65 % 1009,8 hPa 0,0 l/m 0,4 km/h (0 Bft) W-NW 303 2 min 0,000 mm 2,1 UV-I 440 W/m 7,7 C 14,2 C 1,6 km/h (1 Bft) 97,44 %
21.03.2017 12:52 14,2 C 67 % 1009,8 hPa 0,0 l/m 1,1 km/h (1 Bft) NW 323 2 min 0,000 mm 2,3 UV-I 470 W/m 8,2 C 14,2 C 3,2 km/h (1 Bft) 96,36 %
21.03.2017 12:54 14,3 C 67 % 1009,8 hPa 0,0 l/m 1,2 km/h (1 Bft) NW 323 2 min 0,000 mm 2,4 UV-I 464 W/m 8,3 C 14,3 C 3,2 km/h (1 Bft) 98,00 %
21.03.2017 12:56 14,3 C 66 % 1009,8 hPa 0,0 l/m 2,1 km/h (1 Bft) W-NW 298 2 min 0,000 mm 2,3 UV-I 483 W/m 8,0 C 14,3 C 4,8 km/h (1 Bft) 97,22 %
21.03.2017 12:58 14,3 C 65 % 1009,8 hPa 0,0 l/m 3,1 km/h (1 Bft) N 360 2 min 0,000 mm 2,3 UV-I 497 W/m 7,8 C 14,3 C 8,0 km/h (2 Bft) 98,21 %
21.03.2017 13:00 14,2 C 66 % 1009,8 hPa 0,0 l/m 2,7 km/h (1 Bft) W-NW 296 2 min 0,000 mm 2,0 UV-I 388 W/m 7,9 C 14,2 C 8,0 km/h (2 Bft) 97,56 %
21.03.2017 13:02 14,2 C 65 % 1009,7 hPa 0,0 l/m 3,4 km/h (1 Bft) W-NW 284 2 min 0,280 mm 2,0 UV-I 383 W/m 7,7 C 14,2 C 9,7 km/h (2 Bft) 98,00 %
21.03.2017 13:04 14,1 C 65 % 1009,7 hPa 0,0 l/m 4,4 km/h (1 Bft) W 261 2 min 0,000 mm 1,9 UV-I 367 W/m 7,6 C 14,1 C 11,3 km/h (2 Bft) 97,87 %
21.03.2017 13:06 14,1 C 64 % 1009,7 hPa 0,0 l/m 5,4 km/h (1 Bft) W-NW 301 0 min 0,000 mm 1,9 UV-I 359 W/m 7,4 C 14,1 C 12,9 km/h (3 Bft) 96,00 %
21.03.2017 13:08 13,9 C 65 % 1009,7 hPa 0,0 l/m 1,4 km/h (1 Bft) NW 316 0 min 0,000 mm 1,7 UV-I 276 W/m 7,4 C 13,9 C 6,4 km/h (2 Bft) 97,87 %
21.03.2017 13:10 13,9 C 65 % 1009,6 hPa 0,0 l/m 2,2 km/h (1 Bft) W 273 0 min 0,000 mm 1,8 UV-I 320 W/m 7,4 C 13,9 C 6,4 km/h (2 Bft) 100,00 %
21.03.2017 13:12 13,9 C 64 % 1009,6 hPa 0,0 l/m 2,7 km/h (1 Bft) W 269 2 min 0,000 mm 1,9 UV-I 408 W/m 7,2 C 13,9 C 6,4 km/h (2 Bft) 100,00 %
21.03.2017 13:14 14,0 C 65 % 1009,5 hPa 0,0 l/m 4,3 km/h (1 Bft) W-NW 284 2 min 0,000 mm 2,2 UV-I 530 W/m 7,5 C 14,0 C 11,3 km/h (2 Bft) 98,11 %
21.03.2017 13:16 14,2 C 70 % 1009,5 hPa 0,0 l/m 2,2 km/h (1 Bft) NW 325 2 min 0,000 mm 2,4 UV-I 573 W/m 8,8 C 14,2 C 6,4 km/h (2 Bft) 97,87 %
21.03.2017 13:18 14,5 C 65 % 1009,5 hPa 0,0 l/m 1,8 km/h (1 Bft) NW 322 2 min 0,000 mm 2,5 UV-I 654 W/m 8,0 C 14,5 C 4,8 km/h (1 Bft) 98,00 %
21.03.2017 13:20 14,6 C 65 % 1009,4 hPa 0,0 l/m 2,2 km/h (1 Bft) NW 306 2 min 0,000 mm 2,5 UV-I 577 W/m 8,1 C 14,6 C 4,8 km/h (1 Bft) 100,00 %
21.03.2017 13:22 14,6 C 68 % 1009,4 hPa 0,0 l/m 2,1 km/h (1 Bft) W-NW 300 2 min 0,000 mm 2,3 UV-I 591 W/m 8,8 C 14,6 C 6,4 km/h (2 Bft) 97,87 %
21.03.2017 13:24 14,5 C 65 % 1009,4 hPa 0,0 l/m 7,0 km/h (2 Bft) N-NW 330 2 min 0,000 mm 2,0 UV-I 447 W/m 8,0 C 14,2 C 17,7 km/h (3 Bft) 100,00 %
21.03.2017 13:26 14,3 C 65 % 1009,4 hPa 0,0 l/m 4,1 km/h (1 Bft) NW 313 0 min 0,000 mm 1,8 UV-I 280 W/m 7,8 C 14,3 C 8,0 km/h (2 Bft) 100,00 %
21.03.2017 13:28 14,2 C 64 % 1009,3 hPa 0,0 l/m 4,4 km/h (1 Bft) N-NW 337 0 min 0,000 mm 1,9 UV-I 335 W/m 7,5 C 14,2 C 9,7 km/h (2 Bft) 98,00 %
21.03.2017 13:30 14,1 C 66 % 1009,3 hPa 0,0 l/m 3,3 km/h (1 Bft) NW 305 0 min 0,000 mm 1,9 UV-I 337 W/m 7,8 C 14,1 C 6,4 km/h (2 Bft) 100,00 %
21.03.2017 13:32 14,0 C 65 % 1009,2 hPa 0,0 l/m 5,6 km/h (1 Bft) N-NW 336 0 min 0,000 mm 1,7 UV-I 249 W/m 7,5 C 14,0 C 11,3 km/h (2 Bft) 97,62 %
21.03.2017 13:34 13,9 C 67 % 1009,2 hPa 0,0 l/m 1,5 km/h (1 Bft) NW 321 0 min 0,000 mm 1,7 UV-I 253 W/m 7,9 C 13,9 C 4,8 km/h (1 Bft) 95,74 %
21.03.2017 13:36 13,9 C 66 % 1009,2 hPa 0,0 l/m 3,8 km/h (1 Bft) NW 317 0 min 0,000 mm 1,7 UV-I 277 W/m 7,7 C 13,9 C 11,3 km/h (2 Bft) 96,00 %
21.03.2017 13:38 13,8 C 65 % 1009,2 hPa 0,0 l/m 2,6 km/h (1 Bft) W-NW 292 2 min 0,000 mm 1,8 UV-I 346 W/m 7,3 C 13,8 C 4,8 km/h (1 Bft) 94,00 %
21.03.2017 13:40 13,8 C 67 % 1009,2 hPa 0,0 l/m 3,3 km/h (1 Bft) N-NW 333 2 min 0,000 mm 1,8 UV-I 356 W/m 7,8 C 13,8 C 8,0 km/h (2 Bft) 98,00 %
21.03.2017 13:42 13,9 C 68 % 1009,1 hPa 0,0 l/m 3,6 km/h (1 Bft) NW 304 0 min 0,000 mm 1,6 UV-I 311 W/m 8,1 C 13,9 C 8,0 km/h (2 Bft) 97,37 %
21.03.2017 13:44 13,9 C 66 % 1009,1 hPa 0,0 l/m 1,4 km/h (1 Bft) NW 309 0 min 0,000 mm 1,5 UV-I 327 W/m 7,7 C 13,9 C 3,2 km/h (1 Bft) 98,21 %
21.03.2017 13:46 13,9 C 66 % 1009,0 hPa 0,0 l/m 0,7 km/h (0 Bft) N-NW 335 2 min 0,000 mm 1,6 UV-I 349 W/m 7,7 C 13,9 C 3,2 km/h (1 Bft) 97,87 %
21.03.2017 13:48 14,0 C 66 % 1009,0 hPa 0,0 l/m 3,2 km/h (1 Bft) N-NW 345 2 min 0,000 mm 1,7 UV-I 393 W/m 7,7 C 14,0 C 8,0 km/h (2 Bft) 95,12 %
21.03.2017 13:50 14,1 C 66 % 1009,0 hPa 0,0 l/m 1,1 km/h (1 Bft) N 11 2 min 0,000 mm 2,0 UV-I 487 W/m 7,8 C 14,1 C 3,2 km/h (1 Bft) 97,73 %
21.03.2017 13:52 14,3 C 71 % 1009,0 hPa 0,0 l/m 3,8 km/h (1 Bft) NO 51 2 min 0,000 mm 2,1 UV-I 527 W/m 9,1 C 14,3 C 9,7 km/h (2 Bft) 94,00 %
21.03.2017 13:54 14,5 C 67 % 1009,0 hPa 0,0 l/m 4,2 km/h (1 Bft) N-NW 327 2 min 0,000 mm 2,1 UV-I 549 W/m 8,4 C 14,5 C 8,0 km/h (2 Bft) 97,56 %
21.03.2017 13:56 14,4 C 65 % 1008,9 hPa 0,0 l/m 1,7 km/h (1 Bft) N 355 2 min 0,000 mm 1,9 UV-I 425 W/m 7,9 C 14,4 C 3,2 km/h (1 Bft) 96,61 %
21.03.2017 13:58 14,4 C 65 % 1008,9 hPa 0,0 l/m 4,2 km/h (1 Bft) N 5 2 min 0,000 mm 2,0 UV-I 458 W/m 7,9 C 14,4 C 8,0 km/h (2 Bft) 94,74 %
21.03.2017 14:00 14,6 C 68 % 1008,9 hPa 0,0 l/m 4,4 km/h (1 Bft) N-NW 333 2 min 0,228 mm 2,2 UV-I 619 W/m 8,8 C 14,6 C 9,7 km/h (2 Bft) 96,00 %
21.03.2017 14:02 14,7 C 69 % 1008,8 hPa 0,0 l/m 3,1 km/h (1 Bft) N-NW 347 2 min 0,000 mm 1,9 UV-I 511 W/m 9,1 C 14,7 C 6,4 km/h (2 Bft) 97,56 %
21.03.2017 14:04 14,6 C 66 % 1008,7 hPa 0,0 l/m 4,9 km/h (1 Bft) NW 306 2 min 0,000 mm 1,9 UV-I 382 W/m 8,3 C 14,6 C 9,7 km/h (2 Bft) 96,00 %
21.03.2017 14:06 14,6 C 69 % 1008,7 hPa 0,0 l/m 5,1 km/h (1 Bft) N-NO 18 2 min 0,000 mm 1,8 UV-I 359 W/m 9,0 C 14,6 C 12,9 km/h (3 Bft) 95,74 %
21.03.2017 14:08 14,4 C 67 % 1008,7 hPa 0,0 l/m 3,9 km/h (1 Bft) N 5 2 min 0,000 mm 1,9 UV-I 388 W/m 8,4 C 14,4 C 9,7 km/h (2 Bft) 98,11 %
21.03.2017 14:10 14,4 C 68 % 1008,7 hPa 0,0 l/m 6,3 km/h (2 Bft) W-NW 301 2 min 0,000 mm 1,9 UV-I 454 W/m 8,6 C 14,4 C 9,7 km/h (2 Bft) 97,73 %
21.03.2017 14:12 14,4 C 70 % 1008,6 hPa 0,0 l/m 2,4 km/h (1 Bft) N 355 2 min 0,000 mm 1,8 UV-I 422 W/m 9,0 C 14,4 C 4,8 km/h (1 Bft) 97,62 %
21.03.2017 14:14 14,4 C 69 % 1008,6 hPa 0,0 l/m 4,4 km/h (1 Bft) N-NO 30 0 min 0,000 mm 1,6 UV-I 314 W/m 8,8 C 14,4 C 14,5 km/h (3 Bft) 97,87 %
21.03.2017 14:16 14,4 C 69 % 1008,6 hPa 0,0 l/m 11,2 km/h (2 Bft) NO 37 0 min 0,000 mm 1,5 UV-I 281 W/m 8,8 C 11,9 C 16,1 km/h (3 Bft) 98,11 %
21.03.2017 14:18 14,2 C 67 % 1008,6 hPa 0,0 l/m 9,7 km/h (2 Bft) N-NO 28 0 min 0,000 mm 1,4 UV-I 235 W/m 8,2 C 12,4 C 14,5 km/h (3 Bft) 98,00 %
21.03.2017 14:20 14,2 C 69 % 1008,6 hPa 0,0 l/m 8,3 km/h (2 Bft) N-NO 26 0 min 0,000 mm 1,3 UV-I 236 W/m 8,6 C 13,1 C 14,5 km/h (3 Bft) 97,37 %
21.03.2017 14:22 14,1 C 69 % 1008,6 hPa 0,0 l/m 7,5 km/h (2 Bft) NO 35 0 min 0,000 mm 1,3 UV-I 253 W/m 8,5 C 13,4 C 12,9 km/h (3 Bft) 95,74 %
21.03.2017 14:24 14,1 C 70 % 1008,6 hPa 0,0 l/m 2,7 km/h (1 Bft) N 5 0 min 0,000 mm 1,4 UV-I 284 W/m 8,7 C 14,1 C 8,0 km/h (2 Bft) 97,56 %
21.03.2017 14:26 14,1 C 70 % 1008,6 hPa 0,0 l/m 1,3 km/h (1 Bft) N-NW 334 0 min 0,000 mm 1,3 UV-I 268 W/m 8,7 C 14,1 C 3,2 km/h (1 Bft) 94,00 %
21.03.2017 14:28 14,2 C 68 % 1008,7 hPa 0,0 l/m 2,8 km/h (1 Bft) NW 324 0 min 0,000 mm 1,2 UV-I 250 W/m 8,4 C 14,2 C 8,0 km/h (2 Bft) 98,11 %
21.03.2017 14:30 14,2 C 66 % 1008,6 hPa 0,0 l/m 1,9 km/h (1 Bft) NW 322 0 min 0,000 mm 1,2 UV-I 261 W/m 7,9 C 14,2 C 4,8 km/h (1 Bft) 97,56 %
21.03.2017 14:32 14,2 C 67 % 1008,6 hPa 0,0 l/m 1,8 km/h (1 Bft) N-NW 327 0 min 0,000 mm 1,3 UV-I 280 W/m 8,2 C 14,2 C 4,8 km/h (1 Bft) 96,00 %
21.03.2017 14:34 14,3 C 70 % 1008,6 hPa 0,0 l/m 3,8 km/h (1 Bft) NO 40 0 min 0,000 mm 1,4 UV-I 298 W/m 8,9 C 14,3 C 8,0 km/h (2 Bft) 98,11 %
21.03.2017 14:36 14,3 C 68 % 1008,5 hPa 0,0 l/m 3,4 km/h (1 Bft) NW 304 2 min 0,000 mm 1,5 UV-I 413 W/m 8,5 C 14,3 C 6,4 km/h (2 Bft) 97,56 %
21.03.2017 14:38 14,4 C 67 % 1008,5 hPa 0,0 l/m 2,2 km/h (1 Bft) NW 321 2 min 0,000 mm 1,4 UV-I 426 W/m 8,4 C 14,4 C 6,4 km/h (2 Bft) 93,62 %
21.03.2017 14:40 14,4 C 65 % 1008,5 hPa 0,0 l/m 2,0 km/h (1 Bft) W-NW 284 0 min 0,000 mm 1,5 UV-I 250 W/m 7,9 C 14,4 C 4,8 km/h (1 Bft) 93,62 %
21.03.2017 14:42 14,6 C 65 % 1008,5 hPa 0,0 l/m 1,7 km/h (1 Bft) W-NW 284 2 min 0,000 mm 1,6 UV-I 428 W/m 8,1 C 14,6 C 4,8 km/h (1 Bft) 96,00 %
21.03.2017 14:44 14,7 C 65 % 1008,5 hPa 0,0 l/m 2,4 km/h (1 Bft) W-NW 290 2 min 0,000 mm 1,6 UV-I 522 W/m 8,2 C 14,7 C 11,3 km/h (2 Bft) 91,49 %
21.03.2017 14:46 14,8 C 66 % 1008,5 hPa 0,0 l/m 0,9 km/h (0 Bft) W-NW 295 2 min 0,000 mm 1,5 UV-I 413 W/m 8,5 C 14,8 C 3,2 km/h (1 Bft) 96,00 %
21.03.2017 14:48 14,8 C 67 % 1008,4 hPa 0,0 l/m 1,1 km/h (1 Bft) NW 317 2 min 0,000 mm 1,5 UV-I 346 W/m 8,7 C 14,8 C 4,8 km/h (1 Bft) 94,44 %
21.03.2017 14:50 14,8 C 66 % 1008,4 hPa 0,0 l/m 2,3 km/h (1 Bft) W-NW 299 2 min 0,000 mm 1,4 UV-I 320 W/m 8,5 C 14,8 C 6,4 km/h (2 Bft) 96,30 %
21.03.2017 14:52 14,8 C 65 % 1008,4 hPa 0,0 l/m 4,3 km/h (1 Bft) NW 308 2 min 0,000 mm 1,5 UV-I 462 W/m 8,3 C 14,8 C 11,3 km/h (2 Bft) 95,24 %
21.03.2017 14:54 14,8 C 65 % 1008,4 hPa 0,0 l/m 0,6 km/h (0 Bft) NW 319 2 min 0,000 mm 1,5 UV-I 455 W/m 8,3 C 14,8 C 3,2 km/h (1 Bft) 95,74 %
21.03.2017 14:56 14,8 C 69 % 1008,4 hPa 0,0 l/m 2,5 km/h (1 Bft) N-NW 342 2 min 0,000 mm 1,5 UV-I 466 W/m 9,2 C 14,8 C 6,4 km/h (2 Bft) 92,86 %
21.03.2017 14:58 14,9 C 66 % 1008,4 hPa 0,0 l/m 0,5 km/h (0 Bft) N 360 2 min 0,000 mm 1,5 UV-I 534 W/m 8,6 C 14,9 C 3,2 km/h (1 Bft) 94,29 %
21.03.2017 15:00 15,1 C 67 % 1008,3 hPa 0,0 l/m 1,4 km/h (1 Bft) N-NW 339 2 min 0,203 mm 1,5 UV-I 496 W/m 9,0 C 15,1 C 3,2 km/h (1 Bft) 95,92 %
21.03.2017 15:02 15,2 C 66 % 1008,3 hPa 0,0 l/m 1,7 km/h (1 Bft) N-NW 331 2 min 0,000 mm 1,4 UV-I 485 W/m 8,9 C 15,2 C 4,8 km/h (1 Bft) 96,00 %
21.03.2017 15:04 15,2 C 65 % 1008,3 hPa 0,0 l/m 2,5 km/h (1 Bft) NW 308 2 min 0,000 mm 1,4 UV-I 499 W/m 8,7 C 15,2 C 6,4 km/h (2 Bft) 95,45 %
21.03.2017 15:06 15,1 C 64 % 1008,3 hPa 0,0 l/m 2,9 km/h (1 Bft) NW 311 2 min 0,000 mm 1,3 UV-I 493 W/m 8,3 C 15,1 C 8,0 km/h (2 Bft) 95,74 %
21.03.2017 15:08 15,0 C 65 % 1008,3 hPa 0,0 l/m 1,3 km/h (1 Bft) NW 325 2 min 0,000 mm 1,3 UV-I 461 W/m 8,5 C 15,0 C 3,2 km/h (1 Bft) 96,23 %
21.03.2017 15:10 14,9 C 68 % 1008,3 hPa 0,0 l/m 2,9 km/h (1 Bft) NW 325 2 min 0,000 mm 1,1 UV-I 404 W/m 9,0 C 14,9 C 6,4 km/h (2 Bft) 97,73 %
21.03.2017 15:12 14,9 C 65 % 1008,2 hPa 0,0 l/m 3,3 km/h (1 Bft) N 355 2 min 0,000 mm 1,0 UV-I 264 W/m 8,4 C 14,9 C 11,3 km/h (2 Bft) 100,00 %
21.03.2017 15:14 14,7 C 66 % 1008,3 hPa 0,0 l/m 0,5 km/h (0 Bft) N-NW 344 0 min 0,000 mm 0,9 UV-I 187 W/m 8,4 C 14,7 C 1,6 km/h (1 Bft) 98,00 %
21.03.2017 15:16 14,5 C 67 % 1008,4 hPa 0,0 l/m 0,2 km/h (0 Bft) N-NW 344 0 min 0,000 mm 0,9 UV-I 172 W/m 8,4 C 14,5 C 1,6 km/h (1 Bft) 100,00 %
21.03.2017 15:18 14,4 C 67 % 1008,3 hPa 0,0 l/m 1,0 km/h (0 Bft) N-NW 338 0 min 0,000 mm 0,9 UV-I 190 W/m 8,4 C 14,4 C 4,8 km/h (1 Bft) 100,00 %
21.03.2017 15:20 14,3 C 69 % 1008,3 hPa 0,0 l/m 1,6 km/h (1 Bft) N-NW 348 0 min 0,000 mm 0,9 UV-I 222 W/m 8,7 C 14,3 C 3,2 km/h (1 Bft) 96,00 %
21.03.2017 15:22 14,3 C 68 % 1008,2 hPa 0,0 l/m 1,3 km/h (1 Bft) N-NW 336 2 min 0,000 mm 0,9 UV-I 270 W/m 8,5 C 14,3 C 4,8 km/h (1 Bft) 92,11 %
21.03.2017 15:24 14,3 C 68 % 1008,2 hPa 0,0 l/m 0,5 km/h (0 Bft) N-NW 336 2 min 0,000 mm 0,9 UV-I 285 W/m 8,5 C 14,3 C 1,6 km/h (1 Bft) 96,00 %
21.03.2017 15:26 14,4 C 67 % 1008,2 hPa 0,0 l/m 1,5 km/h (1 Bft) N-NO 14 2 min 0,000 mm 0,9 UV-I 279 W/m 8,4 C 14,4 C 3,2 km/h (1 Bft) 92,86 %
21.03.2017 15:28 14,4 C 70 % 1008,2 hPa 0,0 l/m 0,4 km/h (0 Bft) N 9 2 min 0,000 mm 0,9 UV-I 258 W/m 9,0 C 14,4 C 1,6 km/h (1 Bft) 98,36 %
21.03.2017 15:30 14,4 C 71 % 1008,2 hPa 0,0 l/m 2,2 km/h (1 Bft) NW 309 0 min 0,000 mm 0,8 UV-I 237 W/m 9,2 C 14,4 C 4,8 km/h (1 Bft) 97,44 %
21.03.2017 15:32 14,4 C 69 % 1008,2 hPa 0,0 l/m 1,5 km/h (1 Bft) N-NO 15 0 min 0,000 mm 0,8 UV-I 225 W/m 8,8 C 14,4 C 4,8 km/h (1 Bft) 96,00 %
21.03.2017 15:34 14,3 C 69 % 1008,2 hPa 0,0 l/m 2,9 km/h (1 Bft) N 10 0 min 0,000 mm 0,7 UV-I 204 W/m 8,7 C 14,3 C 6,4 km/h (2 Bft) 100,00 %
21.03.2017 15:36 14,2 C 69 % 1008,1 hPa 0,0 l/m 1,2 km/h (1 Bft) N 355 0 min 0,000 mm 0,6 UV-I 169 W/m 8,6 C 14,2 C 4,8 km/h (1 Bft) 98,21 %
21.03.2017 15:38 14,2 C 70 % 1008,2 hPa 0,0 l/m 1,2 km/h (1 Bft) N-NW 339 0 min 0,000 mm 0,3 UV-I 140 W/m 8,8 C 14,2 C 3,2 km/h (1 Bft) 97,37 %
21.03.2017 15:40 14,1 C 70 % 1008,1 hPa 0,0 l/m 2,2 km/h (1 Bft) N-NO 22 0 min 0,000 mm 0,0 UV-I 122 W/m 8,7 C 14,1 C 4,8 km/h (1 Bft) 98,00 %
21.03.2017 15:42 14,1 C 71 % 1008,1 hPa 0,0 l/m 0,1 km/h (0 Bft) N-NO 22 0 min 0,000 mm 0,0 UV-I 126 W/m 8,9 C 14,1 C 1,6 km/h (1 Bft) 100,00 %
21.03.2017 15:44 14,0 C 71 % 1008,0 hPa 0,0 l/m 1,4 km/h (1 Bft) NW 325 0 min 0,000 mm 0,0 UV-I 124 W/m 8,8 C 14,0 C 4,8 km/h (1 Bft) 100,00 %
21.03.2017 15:46 13,9 C 70 % 1008,0 hPa 0,0 l/m 0,8 km/h (0 Bft) N 5 0 min 0,000 mm 0,0 UV-I 110 W/m 8,5 C 13,9 C 3,2 km/h (1 Bft) 92,11 %
21.03.2017 15:48 13,9 C 71 % 1008,1 hPa 0,0 l/m 1,9 km/h (1 Bft) N-NO 27 0 min 0,000 mm 0,0 UV-I 97 W/m 8,7 C 13,9 C 6,4 km/h (2 Bft) 97,87 %
21.03.2017 15:50 13,8 C 70 % 1008,0 hPa 0,0 l/m 1,4 km/h (1 Bft) N 350 0 min 0,000 mm 0,0 UV-I 90 W/m 8,4 C 13,8 C 3,2 km/h (1 Bft) 96,23 %
21.03.2017 15:52 13,8 C 68 % 1008,0 hPa 0,0 l/m 1,9 km/h (1 Bft) N-NW 338 0 min 0,000 mm 0,0 UV-I 82 W/m 8,0 C 13,8 C 3,2 km/h (1 Bft) 96,00 %
21.03.2017 15:54 13,8 C 70 % 1008,0 hPa 0,0 l/m 0,3 km/h (0 Bft) N-NW 338 0 min 0,000 mm 0,0 UV-I 73 W/m 8,4 C 13,8 C 1,6 km/h (1 Bft) 94,74 %
21.03.2017 15:56 13,8 C 68 % 1008,0 hPa 0,0 l/m 2,3 km/h (1 Bft) NW 313 0 min 0,000 mm 0,0 UV-I 65 W/m 8,0 C 13,8 C 6,4 km/h (2 Bft) 97,87 %
21.03.2017 15:58 13,8 C 69 % 1008,0 hPa 0,0 l/m 0,7 km/h (0 Bft) NW 319 0 min 0,000 mm 0,0 UV-I 64 W/m 8,2 C 13,8 C 3,2 km/h (1 Bft) 94,34 %
21.03.2017 16:00 13,8 C 70 % 1008,0 hPa 0,0 l/m 2,7 km/h (1 Bft) N-NW 329 0 min 0,127 mm 0,0 UV-I 69 W/m 8,4 C 13,8 C 11,3 km/h (2 Bft) 97,37 %
21.03.2017 16:02 13,7 C 69 % 1007,9 hPa 0,0 l/m 4,5 km/h (1 Bft) W-NW 290 0 min 0,000 mm 0,0 UV-I 73 W/m 8,1 C 13,7 C 6,4 km/h (2 Bft) 97,87 %
21.03.2017 16:04 13,7 C 71 % 1008,0 hPa 0,0 l/m 2,6 km/h (1 Bft) NW 305 0 min 0,000 mm 0,0 UV-I 78 W/m 8,5 C 13,7 C 6,4 km/h (2 Bft) 98,00 %
21.03.2017 16:06 13,7 C 71 % 1008,0 hPa 0,0 l/m 1,5 km/h (1 Bft) NW 310 0 min 0,000 mm 0,0 UV-I 79 W/m 8,5 C 13,7 C 4,8 km/h (1 Bft) 100,00 %
21.03.2017 16:08 13,6 C 72 % 1007,9 hPa 0,0 l/m 1,0 km/h (0 Bft) NW 312 0 min 0,000 mm 0,0 UV-I 80 W/m 8,6 C 13,6 C 3,2 km/h (1 Bft) 100,00 %
21.03.2017 16:10 13,6 C 70 % 1007,9 hPa 0,0 l/m 1,8 km/h (1 Bft) N-NW 331 0 min 0,000 mm 0,0 UV-I 81 W/m 8,2 C 13,6 C 4,8 km/h (1 Bft) 95,56 %
21.03.2017 16:12 13,6 C 72 % 1007,9 hPa 0,0 l/m 1,1 km/h (1 Bft) N-NW 330 0 min 0,000 mm 0,0 UV-I 79 W/m 8,6 C 13,6 C 3,2 km/h (1 Bft) 97,87 %
21.03.2017 16:14 13,6 C 72 % 1008,0 hPa 0,0 l/m 1,2 km/h (1 Bft) N-NW 329 0 min 0,000 mm 0,0 UV-I 74 W/m 8,6 C 13,6 C 3,2 km/h (1 Bft) 94,00 %
21.03.2017 16:16 13,6 C 70 % 1008,0 hPa 0,0 l/m 3,5 km/h (1 Bft) NW 316 0 min 0,000 mm 0,0 UV-I 63 W/m 8,2 C 13,6 C 6,4 km/h (2 Bft) 97,37 %
21.03.2017 16:18 13,6 C 70 % 1008,0 hPa 0,0 l/m 2,6 km/h (1 Bft) N-NW 331 0 min 0,000 mm 0,0 UV-I 59 W/m 8,2 C 13,6 C 4,8 km/h (1 Bft) 100,00 %
21.03.2017 16:20 13,6 C 70 % 1008,0 hPa 0,0 l/m 1,4 km/h (1 Bft) N-NW 329 0 min 0,000 mm 0,0 UV-I 59 W/m 8,2 C 13,6 C 3,2 km/h (1 Bft) 96,00 %
21.03.2017 16:22 13,5 C 70 % 1007,9 hPa 0,0 l/m 1,5 km/h (1 Bft) N-NW 336 0 min 0,000 mm 0,0 UV-I 62 W/m 8,1 C 13,5 C 4,8 km/h (1 Bft) 95,45 %
21.03.2017 16:24 13,5 C 69 % 1008,0 hPa 0,0 l/m 2,0 km/h (1 Bft) NW 321 0 min 0,000 mm 0,0 UV-I 63 W/m 7,9 C 13,5 C 3,2 km/h (1 Bft) 91,49 %
21.03.2017 16:26 13,5 C 70 % 1008,0 hPa 0,0 l/m 1,7 km/h (1 Bft) W-NW 300 0 min 0,000 mm 0,0 UV-I 64 W/m 8,1 C 13,5 C 6,4 km/h (2 Bft) 94,00 %
21.03.2017 16:28 13,5 C 70 % 1008,0 hPa 0,0 l/m 0,3 km/h (0 Bft) W-NW 300 0 min 0,000 mm 0,0 UV-I 59 W/m 8,1 C 13,5 C 1,6 km/h (1 Bft) 97,37 %
21.03.2017 16:30 13,5 C 70 % 1008,0 hPa 0,0 l/m 0,9 km/h (0 Bft) W-NW 300 0 min 0,000 mm 0,0 UV-I 48 W/m 8,1 C 13,5 C 3,2 km/h (1 Bft) 100,00 %
21.03.2017 16:32 13,5 C 70 % 1008,0 hPa 0,0 l/m 2,7 km/h (1 Bft) W-NW 302 0 min 0,000 mm 0,0 UV-I 39 W/m 8,1 C 13,5 C 4,8 km/h (1 Bft) 97,87 %
21.03.2017 16:34 13,4 C 70 % 1008,0 hPa 0,0 l/m 1,1 km/h (1 Bft) NW 322 0 min 0,000 mm 0,0 UV-I 32 W/m 8,0 C 13,4 C 3,2 km/h (1 Bft) 92,45 %
21.03.2017 16:36 13,4 C 70 % 1008,0 hPa 0,0 l/m 0,5 km/h (0 Bft) NW 322 0 min 0,000 mm 0,0 UV-I 29 W/m 8,0 C 13,4 C 3,2 km/h (1 Bft) 100,00 %
21.03.2017 16:38 13,4 C 70 % 1008,0 hPa 0,0 l/m 1,4 km/h (1 Bft) NW 313 0 min 0,000 mm 0,0 UV-I 28 W/m 8,0 C 13,4 C 4,8 km/h (1 Bft) 98,11 %
21.03.2017 16:40 13,4 C 70 % 1008,0 hPa 0,0 l/m 0,1 km/h (0 Bft) NW 313 0 min 0,000 mm 0,0 UV-I 26 W/m 8,0 C 13,4 C 1,6 km/h (1 Bft) 100,00 %
21.03.2017 16:42 13,4 C 70 % 1008,0 hPa 0,0 l/m 0,3 km/h (0 Bft) NW 313 0 min 0,000 mm 0,0 UV-I 26 W/m 8,0 C 13,4 C 1,6 km/h (1 Bft) 98,00 %
21.03.2017 16:44 13,3 C 70 % 1008,0 hPa 0,0 l/m 0,3 km/h (0 Bft) NW 313 0 min 0,000 mm 0,0 UV-I 27 W/m 7,9 C 13,3 C 3,2 km/h (1 Bft) 97,87 %
21.03.2017 16:46 13,3 C 71 % 1008,0 hPa 0,0 l/m 1,5 km/h (1 Bft) NW 313 0 min 0,000 mm 0,0 UV-I 28 W/m 8,2 C 13,3 C 3,2 km/h (1 Bft) 100,00 %
21.03.2017 16:48 13,3 C 71 % 1008,1 hPa 0,0 l/m 0,0 km/h (0 Bft) NW 313 0 min 0,000 mm 0,0 UV-I 26 W/m 8,2 C 13,3 C 0,0 km/h (0 Bft) 92,19 %
21.03.2017 16:50 13,3 C 71 % 1008,0 hPa 0,0 l/m 0,0 km/h (0 Bft) NW 313 0 min 0,000 mm 0,0 UV-I 25 W/m 8,2 C 13,3 C 0,0 km/h (0 Bft) 97,87 %
21.03.2017 16:52 13,3 C 72 % 1008,1 hPa 0,0 l/m 0,1 km/h (0 Bft) NW 313 0 min 0,000 mm 0,0 UV-I 25 W/m 8,4 C 13,3 C 1,6 km/h (1 Bft) 94,87 %
21.03.2017 16:54 13,2 C 72 % 1008,1 hPa 0,0 l/m 0,1 km/h (0 Bft) NW 313 0 min 0,000 mm 0,0 UV-I 24 W/m 8,3 C 13,2 C 1,6 km/h (1 Bft) 93,62 %
21.03.2017 16:56 13,2 C 72 % 1008,0 hPa 0,0 l/m 0,5 km/h (0 Bft) NW 313 0 min 0,000 mm 0,0 UV-I 23 W/m 8,3 C 13,2 C 1,6 km/h (1 Bft) 92,86 %
21.03.2017 16:58 13,2 C 71 % 1008,0 hPa 0,0 l/m 0,8 km/h (0 Bft) NW 313 0 min 0,000 mm 0,0 UV-I 23 W/m 8,1 C 13,2 C 1,6 km/h (1 Bft) 97,37 %
21.03.2017 17:00 13,2 C 72 % 1008,0 hPa 0,0 l/m 0,1 km/h (0 Bft) NW 313 0 min 0,026 mm 0,0 UV-I 22 W/m 8,3 C 13,2 C 1,6 km/h (1 Bft) 98,00 %
21.03.2017 17:02 13,2 C 71 % 1008,0 hPa 0,0 l/m 0,3 km/h (0 Bft) NW 313 0 min 0,000 mm 0,0 UV-I 21 W/m 8,1 C 13,2 C 1,6 km/h (1 Bft) 89,36 %
21.03.2017 17:04 13,2 C 70 % 1008,1 hPa 0,0 l/m 0,5 km/h (0 Bft) NW 313 0 min 0,000 mm 0,0 UV-I 20 W/m 7,9 C 13,2 C 1,6 km/h (1 Bft) 94,29 %
21.03.2017 17:06 13,3 C 71 % 1008,1 hPa 0,0 l/m 0,0 km/h (0 Bft) NW 313 0 min 0,000 mm 0,0 UV-I 19 W/m 8,2 C 13,3 C 0,0 km/h (0 Bft) 96,77 %
21.03.2017 17:08 13,3 C 71 % 1008,1 hPa 0,0 l/m 0,0 km/h (0 Bft) NW 313 0 min 0,000 mm 0,0 UV-I 19 W/m 8,2 C 13,3 C 0,0 km/h (0 Bft) 97,37 %
21.03.2017 17:10 13,3 C 71 % 1008,1 hPa 0,0 l/m 0,0 km/h (0 Bft) NW 313 0 min 0,000 mm 0,0 UV-I 20 W/m 8,2 C 13,3 C 0,0 km/h (0 Bft) 90,00 %
21.03.2017 17:12 13,3 C 71 % 1008,1 hPa 0,0 l/m 0,0 km/h (0 Bft) NW 313 0 min 0,000 mm 0,0 UV-I 21 W/m 8,2 C 13,3 C 0,0 km/h (0 Bft) 95,74 %
21.03.2017 17:14 13,3 C 73 % 1008,1 hPa 0,0 l/m 0,3 km/h (0 Bft) NW 313 0 min 0,000 mm 0,0 UV-I 19 W/m 8,6 C 13,3 C 3,2 km/h (1 Bft) 91,49 %
21.03.2017 17:16 13,1 C 75 % 1008,1 hPa 0,0 l/m 2,5 km/h (1 Bft) NW 313 0 min 0,000 mm 0,0 UV-I 19 W/m 8,8 C 13,1 C 4,8 km/h (1 Bft) 94,34 %
21.03.2017 17:18 12,9 C 79 % 1008,2 hPa 0,0 l/m 2,9 km/h (1 Bft) NW 313 0 min 0,000 mm 0,0 UV-I 18 W/m 9,3 C 12,9 C 3,2 km/h (1 Bft) 92,11 %
21.03.2017 17:20 12,8 C 79 % 1008,2 hPa 0,0 l/m 2,5 km/h (1 Bft) NW 313 0 min 0,000 mm 0,0 UV-I 18 W/m 9,2 C 12,8 C 3,2 km/h (1 Bft) 96,43 %
21.03.2017 17:22 12,6 C 79 % 1008,2 hPa 0,0 l/m 2,1 km/h (1 Bft) NW 313 0 min 0,000 mm 0,0 UV-I 18 W/m 9,1 C 12,6 C 3,2 km/h (1 Bft) 95,12 %
21.03.2017 17:24 12,6 C 80 % 1008,2 hPa 0,0 l/m 2,5 km/h (1 Bft) NW 313 0 min 0,000 mm 0,0 UV-I 18 W/m 9,2 C 12,6 C 3,2 km/h (1 Bft) 94,34 %
21.03.2017 17:26 12,5 C 80 % 1008,2 hPa 0,0 l/m 2,2 km/h (1 Bft) NW 313 0 min 0,000 mm 0,0 UV-I 18 W/m 9,1 C 12,5 C 3,2 km/h (1 Bft) 97,44 %
21.03.2017 17:28 12,5 C 78 % 1008,2 hPa 0,0 l/m 3,1 km/h (1 Bft) NW 313 0 min 0,000 mm 0,0 UV-I 16 W/m 8,8 C 12,5 C 4,8 km/h (1 Bft) 94,55 %
21.03.2017 17:30 12,4 C 78 % 1008,2 hPa 0,0 l/m 3,1 km/h (1 Bft) NW 313 0 min 0,000 mm 0,0 UV-I 16 W/m 8,7 C 12,4 C 3,2 km/h (1 Bft) 97,44 %
21.03.2017 17:32 12,5 C 79 % 1008,2 hPa 0,0 l/m 3,0 km/h (1 Bft) NW 313 0 min 0,000 mm 0,0 UV-I 14 W/m 9,0 C 12,5 C 3,2 km/h (1 Bft) 93,62 %
21.03.2017 17:34 12,4 C 79 % 1008,2 hPa 0,0 l/m 3,2 km/h (1 Bft) NW 313 0 min 0,000 mm 0,0 UV-I 14 W/m 8,9 C 12,4 C 4,8 km/h (1 Bft) 100,00 %
21.03.2017 17:36 12,4 C 79 % 1008,2 hPa 0,0 l/m 2,8 km/h (1 Bft) NW 313 0 min 0,000 mm 0,0 UV-I 12 W/m 8,9 C 12,4 C 3,2 km/h (1 Bft) 98,31 %
21.03.2017 17:38 12,4 C 80 % 1008,2 hPa 0,0 l/m 2,5 km/h (1 Bft) NW 313 0 min 0,000 mm 0,0 UV-I 12 W/m 9,0 C 12,4 C 3,2 km/h (1 Bft) 95,74 %
21.03.2017 17:40 12,3 C 81 % 1008,2 hPa 0,0 l/m 1,7 km/h (1 Bft) NW 313 0 min 0,000 mm 0,0 UV-I 11 W/m 9,1 C 12,3 C 3,2 km/h (1 Bft) 97,56 %
21.03.2017 17:42 12,3 C 81 % 1008,2 hPa 0,0 l/m 0,0 km/h (0 Bft) NW 313 0 min 0,000 mm 0,0 UV-I 11 W/m 9,1 C 12,3 C 0,0 km/h (0 Bft) 100,00 %
21.03.2017 17:44 12,4 C 82 % 1008,3 hPa 0,0 l/m 0,1 km/h (0 Bft) NW 313 0 min 0,000 mm 0,0 UV-I 11 W/m 9,4 C 12,4 C 1,6 km/h (1 Bft) 100,00 %
21.03.2017 17:46 12,4 C 79 % 1008,3 hPa 0,0 l/m 0,3 km/h (0 Bft) NW 313 0 min 0,000 mm 0,0 UV-I 11 W/m 8,9 C 12,4 C 1,6 km/h (1 Bft) 96,00 %
21.03.2017 17:48 12,5 C 82 % 1008,3 hPa 0,0 l/m 0,3 km/h (0 Bft) NW 313 0 min 0,000 mm 0,0 UV-I 11 W/m 9,5 C 12,5 C 1,6 km/h (1 Bft) 96,00 %
21.03.2017 17:50 12,5 C 82 % 1008,3 hPa 0,0 l/m 0,1 km/h (0 Bft) NW 313 0 min 0,000 mm 0,0 UV-I 11 W/m 9,5 C 12,5 C 1,6 km/h (1 Bft) 96,23 %
21.03.2017 17:52 12,4 C 82 % 1008,3 hPa 0,0 l/m 0,0 km/h (0 Bft) NW 313 0 min 0,000 mm 0,0 UV-I 9 W/m 9,4 C 12,4 C 0,0 km/h (0 Bft) 97,37 %
21.03.2017 17:54 12,4 C 81 % 1008,3 hPa 0,0 l/m 0,0 km/h (0 Bft) NW 313 0 min 0,000 mm 0,0 UV-I 9 W/m 9,2 C 12,4 C 0,0 km/h (0 Bft) 100,00 %
21.03.2017 17:56 12,3 C 82 % 1008,3 hPa 0,0 l/m 0,0 km/h (0 Bft) NW 313 0 min 0,000 mm 0,0 UV-I 8 W/m 9,3 C 12,3 C 0,0 km/h (0 Bft) 96,00 %
21.03.2017 17:58 12,3 C 83 % 1008,4 hPa 0,0 l/m 0,4 km/h (0 Bft) NW 313 0 min 0,000 mm 0,0 UV-I 7 W/m 9,5 C 12,3 C 1,6 km/h (1 Bft) 97,56 %
21.03.2017 18:00 12,2 C 82 % 1008,4 hPa 0,0 l/m 0,0 km/h (0 Bft) NW 313 0 min 0,000 mm 0,0 UV-I 6 W/m 9,2 C 12,2 C 0,0 km/h (0 Bft) 96,43 %
21.03.2017 18:02 12,2 C 82 % 1008,5 hPa 0,0 l/m 0,0 km/h (0 Bft) NW 313 0 min 0,025 mm 0,0 UV-I 5 W/m 9,2 C 12,2 C 0,0 km/h (0 Bft) 93,62 %
21.03.2017 18:04 12,2 C 82 % 1008,5 hPa 0,0 l/m 0,0 km/h (0 Bft) NW 313 0 min 0,000 mm 0,0 UV-I 5 W/m 9,2 C 12,2 C 0,0 km/h (0 Bft) 100,00 %
21.03.2017 18:06 12,1 C 82 % 1008,5 hPa 0,0 l/m 0,0 km/h (0 Bft) NW 313 0 min 0,000 mm 0,0 UV-I 5 W/m 9,1 C 12,1 C 0,0 km/h (0 Bft) 92,11 %
21.03.2017 18:08 12,1 C 84 % 1008,5 hPa 0,0 l/m 0,0 km/h (0 Bft) NW 313 0 min 0,000 mm 0,0 UV-I 5 W/m 9,5 C 12,1 C 0,0 km/h (0 Bft) 94,64 %
21.03.2017 18:10 12,1 C 85 % 1008,5 hPa 0,0 l/m 0,0 km/h (0 Bft) NW 313 0 min 0,000 mm 0,0 UV-I 5 W/m 9,7 C 12,1 C 1,6 km/h (1 Bft) 95,74 %
21.03.2017 18:12 12,1 C 84 % 1008,5 hPa 0,0 l/m 0,0 km/h (0 Bft) NW 313 0 min 0,000 mm 0,0 UV-I 0 W/m 9,5 C 12,1 C 0,0 km/h (0 Bft) 97,37 %
21.03.2017 18:14 12,0 C 84 % 1008,6 hPa 0,0 l/m 0,0 km/h (0 Bft) NW 313 0 min 0,000 mm 0,0 UV-I 0 W/m 9,4 C 12,0 C 1,6 km/h (1 Bft) 98,00 %
21.03.2017 18:16 12,0 C 85 % 1008,6 hPa 0,0 l/m 0,0 km/h (0 Bft) NW 313 0 min 0,000 mm 0,0 UV-I 0 W/m 9,6 C 12,0 C 1,6 km/h (1 Bft) 100,00 %
21.03.2017 18:18 11,9 C 85 % 1008,6 hPa 0,0 l/m 0,1 km/h (0 Bft) NW 313 0 min 0,000 mm 0,0 UV-I 0 W/m 9,5 C 11,9 C 1,6 km/h (1 Bft) 98,00 %
21.03.2017 18:20 11,9 C 84 % 1008,6 hPa 0,0 l/m 0,6 km/h (0 Bft) NW 313 0 min 0,000 mm 0,0 UV-I 0 W/m 9,3 C 11,9 C 1,6 km/h (1 Bft) 97,56 %
21.03.2017 18:22 11,9 C 83 % 1008,6 hPa 0,0 l/m 0,6 km/h (0 Bft) NW 313 0 min 0,000 mm 0,0 UV-I 0 W/m 9,1 C 11,9 C 3,2 km/h (1 Bft) 90,00 %
21.03.2017 18:24 11,9 C 83 % 1008,6 hPa 0,0 l/m 0,7 km/h (0 Bft) NW 313 0 min 0,000 mm 0,0 UV-I 0 W/m 9,1 C 11,9 C 1,6 km/h (1 Bft) 92,68 %
21.03.2017 18:26 11,8 C 85 % 1008,7 hPa 0,0 l/m 1,5 km/h (1 Bft) NW 313 0 min 0,000 mm 0,0 UV-I 0 W/m 9,4 C 11,8 C 3,2 km/h (1 Bft) 94,34 %
21.03.2017 18:28 11,8 C 82 % 1008,7 hPa 0,0 l/m 1,0 km/h (0 Bft) NW 313 0 min 0,000 mm 0,0 UV-I 0 W/m 8,8 C 11,8 C 3,2 km/h (1 Bft) 94,00 %
21.03.2017 18:30 11,8 C 81 % 1008,7 hPa 0,0 l/m 0,9 km/h (0 Bft) NW 313 0 min 0,000 mm 0,0 UV-I 0 W/m 8,6 C 11,8 C 1,6 km/h (1 Bft) 97,56 %
21.03.2017 18:32 11,9 C 81 % 1008,7 hPa 0,0 l/m 0,5 km/h (0 Bft) NW 313 0 min 0,000 mm 0,0 UV-I 0 W/m 8,7 C 11,9 C 1,6 km/h (1 Bft) 96,00 %
21.03.2017 18:34 11,9 C 83 % 1008,8 hPa 0,0 l/m 0,7 km/h (0 Bft) NW 313 0 min 0,000 mm 0,0 UV-I 0 W/m 9,1 C 11,9 C 1,6 km/h (1 Bft) 97,56 %
21.03.2017 18:36 11,8 C 84 % 1008,8 hPa 0,0 l/m 0,5 km/h (0 Bft) NW 313 0 min 0,000 mm 0,0 UV-I 0 W/m 9,2 C 11,8 C 1,6 km/h (1 Bft) 96,15 %
21.03.2017 18:38 11,8 C 84 % 1008,7 hPa 0,0 l/m 0,3 km/h (0 Bft) NW 313 0 min 0,000 mm 0,0 UV-I 0 W/m 9,2 C 11,8 C 1,6 km/h (1 Bft) 92,00 %
21.03.2017 18:40 11,8 C 83 % 1008,8 hPa 0,0 l/m 0,0 km/h (0 Bft) NW 313 0 min 0,000 mm 0,0 UV-I 0 W/m 9,0 C 11,8 C 0,0 km/h (0 Bft) 94,00 %
21.03.2017 18:42 11,8 C 84 % 1008,7 hPa 0,0 l/m 0,0 km/h (0 Bft) NW 313 0 min 0,000 mm 0,0 UV-I 0 W/m 9,2 C 11,8 C 0,0 km/h (0 Bft) 100,00 %
21.03.2017 18:44 11,8 C 84 % 1008,8 hPa 0,0 l/m 0,0 km/h (0 Bft) NW 313 0 min 0,000 mm 0,0 UV-I 0 W/m 9,2 C 11,8 C 1,6 km/h (1 Bft) 93,75 %
21.03.2017 18:46 11,8 C 84 % 1008,7 hPa 0,0 l/m 0,9 km/h (0 Bft) NW 313 0 min 0,000 mm 0,0 UV-I 0 W/m 9,2 C 11,8 C 3,2 km/h (1 Bft) 96,00 %
21.03.2017 18:48 11,7 C 84 % 1008,7 hPa 0,0 l/m 1,1 km/h (1 Bft) NW 313 0 min 0,000 mm 0,0 UV-I 0 W/m 9,1 C 11,7 C 3,2 km/h (1 Bft) 92,68 %
21.03.2017 18:50 11,7 C 83 % 1008,7 hPa 0,0 l/m 0,6 km/h (0 Bft) NW 313 0 min 0,000 mm 0,0 UV-I 0 W/m 8,9 C 11,7 C 1,6 km/h (1 Bft) 98,00 %
21.03.2017 18:52 11,7 C 82 % 1008,8 hPa 0,0 l/m 1,8 km/h (1 Bft) NW 313 0 min 0,000 mm 0,0 UV-I 0 W/m 8,7 C 11,7 C 3,2 km/h (1 Bft) 96,00 %
21.03.2017 18:54 11,7 C 83 % 1008,9 hPa 0,0 l/m 2,1 km/h (1 Bft) NW 313 0 min 0,000 mm 0,0 UV-I 0 W/m 8,9 C 11,7 C 3,2 km/h (1 Bft) 91,84 %
21.03.2017 18:56 11,7 C 83 % 1008,8 hPa 0,0 l/m 2,4 km/h (1 Bft) NW 313 0 min 0,000 mm 0,0 UV-I 0 W/m 8,9 C 11,7 C 3,2 km/h (1 Bft) 97,37 %
21.03.2017 18:58 11,7 C 82 % 1008,9 hPa 0,0 l/m 2,8 km/h (1 Bft) NW 313 0 min 0,000 mm 0,0 UV-I 0 W/m 8,7 C 11,7 C 3,2 km/h (1 Bft) 94,34 %
21.03.2017 19:00 11,7 C 82 % 1008,9 hPa 0,0 l/m 3,5 km/h (1 Bft) NW 313 0 min 0,000 mm 0,0 UV-I 0 W/m 8,7 C 11,7 C 4,8 km/h (1 Bft) 92,68 %
21.03.2017 19:02 11,7 C 83 % 1008,9 hPa 0,0 l/m 3,1 km/h (1 Bft) NW 313 0 min 0,000 mm 0,0 UV-I 0 W/m 8,9 C 11,7 C 3,2 km/h (1 Bft) 87,50 %
21.03.2017 19:04 11,7 C 84 % 1008,9 hPa 0,0 l/m 2,1 km/h (1 Bft) NW 313 0 min 0,000 mm 0,0 UV-I 0 W/m 9,1 C 11,7 C 3,2 km/h (1 Bft) 92,11 %
21.03.2017 19:06 11,6 C 85 % 1008,9 hPa 0,0 l/m 0,1 km/h (0 Bft) NW 313 0 min 0,000 mm 0,0 UV-I 0 W/m 9,2 C 11,6 C 1,6 km/h (1 Bft) 91,49 %
21.03.2017 19:08 11,6 C 84 % 1008,9 hPa 0,0 l/m 0,1 km/h (0 Bft) NW 313 0 min 0,000 mm 0,0 UV-I 0 W/m 9,0 C 11,6 C 1,6 km/h (1 Bft) 96,00 %
21.03.2017 19:10 11,6 C 83 % 1008,9 hPa 0,0 l/m 0,0 km/h (0 Bft) NW 313 0 min 0,000 mm 0,0 UV-I 0 W/m 8,8 C 11,6 C 0,0 km/h (0 Bft) 92,00 %
21.03.2017 19:12 11,6 C 83 % 1008,9 hPa 0,0 l/m 0,5 km/h (0 Bft) NW 313 0 min 0,000 mm 0,0 UV-I 0 W/m 8,8 C 11,6 C 1,6 km/h (1 Bft) 92,11 %
21.03.2017 19:14 11,6 C 83 % 1009,0 hPa 0,0 l/m 0,0 km/h (0 Bft) NW 313 0 min 0,000 mm 0,0 UV-I 0 W/m 8,8 C 11,6 C 0,0 km/h (0 Bft) 94,34 %
21.03.2017 19:16 11,6 C 84 % 1009,0 hPa 0,0 l/m 0,0 km/h (0 Bft) NW 313 0 min 0,000 mm 0,0 UV-I 0 W/m 9,0 C 11,6 C 0,0 km/h (0 Bft) 92,00 %
21.03.2017 19:18 11,5 C 85 % 1009,0 hPa 0,0 l/m 0,0 km/h (0 Bft) NW 313 0 min 0,000 mm 0,0 UV-I 0 W/m 9,1 C 11,5 C 0,0 km/h (0 Bft) 96,00 %
21.03.2017 19:20 11,4 C 85 % 1009,0 hPa 0,0 l/m 0,0 km/h (0 Bft) NW 313 0 min 0,000 mm 0,0 UV-I 0 W/m 9,0 C 11,4 C 0,0 km/h (0 Bft) 94,44 %
21.03.2017 19:22 11,4 C 85 % 1009,0 hPa 0,0 l/m 0,0 km/h (0 Bft) NW 313 0 min 0,000 mm 0,0 UV-I 0 W/m 9,0 C 11,4 C 0,0 km/h (0 Bft) 94,34 %
21.03.2017 19:24 11,4 C 84 % 1009,1 hPa 0,0 l/m 0,0 km/h (0 Bft) NW 313 0 min 0,000 mm 0,0 UV-I 0 W/m 8,8 C 11,4 C 0,0 km/h (0 Bft) 93,88 %
21.03.2017 19:26 11,4 C 83 % 1009,0 hPa 0,0 l/m 0,0 km/h (0 Bft) NW 313 0 min 0,000 mm 0,0 UV-I 0 W/m 8,6 C 11,4 C 0,0 km/h (0 Bft) 95,83 %
21.03.2017 19:28 11,4 C 84 % 1009,0 hPa 0,0 l/m 0,0 km/h (0 Bft) NW 313 0 min 0,000 mm 0,0 UV-I 0 W/m 8,8 C 11,4 C 0,0 km/h (0 Bft) 92,31 %
21.03.2017 19:30 11,5 C 84 % 1009,1 hPa 0,0 l/m 0,0 km/h (0 Bft) NW 313 0 min 0,000 mm 0,0 UV-I 0 W/m 8,9 C 11,5 C 0,0 km/h (0 Bft) 95,74 %
21.03.2017 19:32 11,5 C 85 % 1009,1 hPa 0,0 l/m 0,0 km/h (0 Bft) NW 313 0 min 0,000 mm 0,0 UV-I 0 W/m 9,1 C 11,5 C 0,0 km/h (0 Bft) 96,00 %
21.03.2017 19:34 11,4 C 85 % 1009,1 hPa 0,0 l/m 0,0 km/h (0 Bft) NW 313 0 min 0,000 mm 0,0 UV-I 0 W/m 9,0 C 11,4 C 0,0 km/h (0 Bft) 100,00 %
21.03.2017 19:36 11,4 C 85 % 1009,2 hPa 0,0 l/m 0,0 km/h (0 Bft) NW 313 0 min 0,000 mm 0,0 UV-I 0 W/m 9,0 C 11,4 C 0,0 km/h (0 Bft) 98,21 %
21.03.2017 19:38 11,4 C 85 % 1009,2 hPa 0,0 l/m 0,0 km/h (0 Bft) NW 313 0 min 0,000 mm 0,0 UV-I 0 W/m 9,0 C 11,4 C 0,0 km/h (0 Bft) 100,00 %
21.03.2017 19:40 11,5 C 84 % 1009,2 hPa 0,0 l/m 0,0 km/h (0 Bft) NW 313 0 min 0,000 mm 0,0 UV-I 0 W/m 8,9 C 11,5 C 0,0 km/h (0 Bft) 100,00 %
21.03.2017 19:43 11,5 C 86 % 1009,2 hPa 0,0 l/m 0,0 km/h (0 Bft) NW 313 0 min 0,000 mm 0,0 UV-I 0 W/m 9,2 C 11,5 C 0,0 km/h (0 Bft) 98,65 %
21.03.2017 19:44 11,4 C 86 % 1009,2 hPa 0,0 l/m 0,0 km/h (0 Bft) NW 313 0 min 0,000 mm 0,0 UV-I 0 W/m 9,1 C 11,4 C 0,0 km/h (0 Bft) 100,00 %
21.03.2017 19:45 11,4 C 87 % 1009,2 hPa 0,0 l/m 0,0 km/h (0 Bft) N 0 0 min 0,000 mm 0,0 UV-I 0 W/m 9,3 C 11,4 C 0,0 km/h (0 Bft) 97,37 %
21.03.2017 19:48 11,3 C 86 % 1009,2 hPa 0,0 l/m 0,0 km/h (0 Bft) NW 313 0 min 0,000 mm 0,0 UV-I 0 W/m 9,0 C 11,3 C 0,0 km/h (0 Bft) 97,22 %
21.03.2017 19:50 11,3 C 87 % 1009,2 hPa 0,0 l/m 0,0 km/h (0 Bft) NW 313 0 min 0,000 mm 0,0 UV-I 0 W/m 9,2 C 11,3 C 0,0 km/h (0 Bft) 100,00 %
21.03.2017 19:52 11,3 C 87 % 1009,2 hPa 0,0 l/m 0,0 km/h (0 Bft) NW 313 0 min 0,000 mm 0,0 UV-I 0 W/m 9,2 C 11,3 C 0,0 km/h (0 Bft) 100,00 %
21.03.2017 19:54 11,3 C 87 % 1009,2 hPa 0,0 l/m 0,0 km/h (0 Bft) NW 313 0 min 0,000 mm 0,0 UV-I 0 W/m 9,2 C 11,3 C 0,0 km/h (0 Bft) 96,00 %
21.03.2017 19:56 11,3 C 87 % 1009,2 hPa 0,0 l/m 0,5 km/h (0 Bft) NW 313 0 min 0,000 mm 0,0 UV-I 0 W/m 9,2 C 11,3 C 1,6 km/h (1 Bft) 98,00 %
21.03.2017 19:58 11,2 C 88 % 1009,3 hPa 0,0 l/m 0,0 km/h (0 Bft) NW 313 0 min 0,000 mm 0,0 UV-I 0 W/m 9,3 C 11,2 C 1,6 km/h (1 Bft) 95,12 %
21.03.2017 20:00 11,2 C 87 % 1009,3 hPa 0,0 l/m 0,0 km/h (0 Bft) NW 313 0 min 0,000 mm 0,0 UV-I 0 W/m 9,1 C 11,2 C 0,0 km/h (0 Bft) 97,87 %
21.03.2017 20:02 11,1 C 87 % 1009,3 hPa 0,0 l/m 0,0 km/h (0 Bft) NW 313 0 min 0,000 mm 0,0 UV-I 0 W/m 9,0 C 11,1 C 0,0 km/h (0 Bft) 95,74 %
21.03.2017 20:04 11,1 C 87 % 1009,4 hPa 0,0 l/m 0,0 km/h (0 Bft) NW 313 0 min 0,000 mm 0,0 UV-I 0 W/m 9,0 C 11,1 C 0,0 km/h (0 Bft) 100,00 %
21.03.2017 20:06 11,0 C 88 % 1009,4 hPa 0,0 l/m 0,0 km/h (0 Bft) NW 313 0 min 0,000 mm 0,0 UV-I 0 W/m 9,1 C 11,0 C 0,0 km/h (0 Bft) 96,00 %
21.03.2017 20:08 11,0 C 87 % 1009,4 hPa 0,0 l/m 0,0 km/h (0 Bft) NW 313 0 min 0,000 mm 0,0 UV-I 0 W/m 8,9 C 11,0 C 0,0 km/h (0 Bft) 100,00 %
21.03.2017 20:10 11,1 C 87 % 1009,4 hPa 0,0 l/m 0,0 km/h (0 Bft) NW 313 0 min 0,000 mm 0,0 UV-I 0 W/m 9,0 C 11,1 C 0,0 km/h (0 Bft) 100,00 %
21.03.2017 20:12 11,1 C 87 % 1009,4 hPa 0,0 l/m 0,0 km/h (0 Bft) NW 313 0 min 0,000 mm 0,0 UV-I 0 W/m 9,0 C 11,1 C 0,0 km/h (0 Bft) 97,87 %
21.03.2017 20:14 11,1 C 87 % 1009,4 hPa 0,0 l/m 0,0 km/h (0 Bft) NW 313 0 min 0,000 mm 0,0 UV-I 0 W/m 9,0 C 11,1 C 0,0 km/h (0 Bft) 95,74 %
21.03.2017 20:16 11,1 C 87 % 1009,4 hPa 0,0 l/m 1,1 km/h (1 Bft) NW 313 0 min 0,000 mm 0,0 UV-I 0 W/m 9,0 C 11,1 C 3,2 km/h (1 Bft) 98,21 %
21.03.2017 20:18 11,1 C 87 % 1009,4 hPa 0,0 l/m 2,1 km/h (1 Bft) NW 313 0 min 0,000 mm 0,0 UV-I 0 W/m 9,0 C 11,1 C 3,2 km/h (1 Bft) 93,62 %
21.03.2017 20:20 11,1 C 87 % 1009,4 hPa 0,0 l/m 1,4 km/h (1 Bft) NW 313 0 min 0,000 mm 0,0 UV-I 0 W/m 9,0 C 11,1 C 3,2 km/h (1 Bft) 92,86 %
21.03.2017 20:22 11,1 C 87 % 1009,4 hPa 0,0 l/m 0,0 km/h (0 Bft) NW 313 0 min 0,000 mm 0,0 UV-I 0 W/m 9,0 C 11,1 C 1,6 km/h (1 Bft) 97,87 %
21.03.2017 20:24 11,1 C 87 % 1009,4 hPa 0,0 l/m 0,0 km/h (0 Bft) NW 313 0 min 0,000 mm 0,0 UV-I 0 W/m 9,0 C 11,1 C 0,0 km/h (0 Bft) 90,00 %
21.03.2017 20:26 11,1 C 88 % 1009,4 hPa 0,0 l/m 0,0 km/h (0 Bft) NW 313 0 min 0,000 mm 0,0 UV-I 0 W/m 9,2 C 11,1 C 0,0 km/h (0 Bft) 100,00 %
21.03.2017 20:28 11,0 C 88 % 1009,4 hPa 0,0 l/m 0,3 km/h (0 Bft) NW 313 0 min 0,000 mm 0,0 UV-I 0 W/m 9,1 C 11,0 C 1,6 km/h (1 Bft) 100,00 %
21.03.2017 20:30 10,9 C 88 % 1009,4 hPa 0,0 l/m 0,9 km/h (0 Bft) NW 313 0 min 0,000 mm 0,0 UV-I 0 W/m 9,0 C 10,9 C 1,6 km/h (1 Bft) 94,74 %
21.03.2017 20:32 10,9 C 88 % 1009,5 hPa 0,0 l/m 0,7 km/h (0 Bft) NW 313 0 min 0,000 mm 0,0 UV-I 0 W/m 9,0 C 10,9 C 1,6 km/h (1 Bft) 93,62 %
21.03.2017 20:34 10,9 C 88 % 1009,5 hPa 0,0 l/m 2,4 km/h (1 Bft) NW 313 0 min 0,000 mm 0,0 UV-I 0 W/m 9,0 C 10,9 C 3,2 km/h (1 Bft) 97,73 %
21.03.2017 20:36 10,9 C 88 % 1009,5 hPa 0,0 l/m 2,5 km/h (1 Bft) NW 313 0 min 0,000 mm 0,0 UV-I 0 W/m 9,0 C 10,9 C 4,8 km/h (1 Bft) 100,00 %
21.03.2017 20:38 10,9 C 89 % 1009,5 hPa 0,0 l/m 2,1 km/h (1 Bft) NW 313 0 min 0,000 mm 0,0 UV-I 0 W/m 9,2 C 10,9 C 3,2 km/h (1 Bft) 95,74 %
21.03.2017 20:40 10,9 C 89 % 1009,5 hPa 0,0 l/m 0,5 km/h (0 Bft) NW 313 0 min 0,000 mm 0,0 UV-I 0 W/m 9,2 C 10,9 C 1,6 km/h (1 Bft) 96,43 %
21.03.2017 20:42 10,9 C 88 % 1009,5 hPa 0,0 l/m 1,0 km/h (0 Bft) NW 313 0 min 0,000 mm 0,0 UV-I 0 W/m 9,0 C 10,9 C 3,2 km/h (1 Bft) 89,47 %
21.03.2017 20:44 10,9 C 89 % 1009,4 hPa 0,0 l/m 1,5 km/h (1 Bft) NW 313 0 min 0,000 mm 0,0 UV-I 0 W/m 9,2 C 10,9 C 3,2 km/h (1 Bft) 96,00 %
21.03.2017 20:46 10,9 C 88 % 1009,4 hPa 0,0 l/m 2,4 km/h (1 Bft) NW 313 0 min 0,000 mm 0,0 UV-I 0 W/m 9,0 C 10,9 C 3,2 km/h (1 Bft) 97,87 %
21.03.2017 20:48 11,0 C 88 % 1009,5 hPa 0,0 l/m 0,5 km/h (0 Bft) NW 313 0 min 0,000 mm 0,0 UV-I 0 W/m 9,1 C 11,0 C 1,6 km/h (1 Bft) 94,00 %
21.03.2017 20:50 11,0 C 88 % 1009,5 hPa 0,0 l/m 1,9 km/h (1 Bft) NW 313 0 min 0,000 mm 0,0 UV-I 0 W/m 9,1 C 11,0 C 4,8 km/h (1 Bft) 100,00 %
21.03.2017 20:52 11,0 C 88 % 1009,5 hPa 0,0 l/m 0,2 km/h (0 Bft) NW 313 0 min 0,000 mm 0,0 UV-I 0 W/m 9,1 C 11,0 C 1,6 km/h (1 Bft) 97,14 %
21.03.2017 20:54 11,0 C 88 % 1009,5 hPa 0,0 l/m 0,6 km/h (0 Bft) NW 313 0 min 0,000 mm 0,0 UV-I 0 W/m 9,1 C 11,0 C 1,6 km/h (1 Bft) 98,21 %
21.03.2017 20:56 10,9 C 89 % 1009,5 hPa 0,0 l/m 0,7 km/h (0 Bft) NW 313 0 min 0,000 mm 0,0 UV-I 0 W/m 9,2 C 10,9 C 3,2 km/h (1 Bft) 94,44 %
21.03.2017 20:58 10,9 C 88 % 1009,5 hPa 0,0 l/m 0,3 km/h (0 Bft) NW 313 0 min 0,000 mm 0,0 UV-I 0 W/m 9,0 C 10,9 C 1,6 km/h (1 Bft) 94,34 %
21.03.2017 21:00 10,8 C 89 % 1009,5 hPa 0,0 l/m 0,0 km/h (0 Bft) NW 313 0 min 0,000 mm 0,0 UV-I 0 W/m 9,1 C 10,8 C 0,0 km/h (0 Bft) 96,00 %
21.03.2017 21:02 10,8 C 89 % 1009,4 hPa 0,0 l/m 0,0 km/h (0 Bft) NW 313 0 min 0,000 mm 0,0 UV-I 0 W/m 9,1 C 10,8 C 0,0 km/h (0 Bft) 97,87 %
21.03.2017 21:04 10,8 C 89 % 1009,4 hPa 0,0 l/m 0,7 km/h (0 Bft) NW 313 0 min 0,000 mm 0,0 UV-I 0 W/m 9,1 C 10,8 C 1,6 km/h (1 Bft) 95,74 %
21.03.2017 21:06 10,9 C 88 % 1009,5 hPa 0,0 l/m 2,2 km/h (1 Bft) NW 313 0 min 0,000 mm 0,0 UV-I 0 W/m 9,0 C 10,9 C 3,2 km/h (1 Bft) 94,74 %
21.03.2017 21:08 10,9 C 87 % 1009,5 hPa 0,0 l/m 1,5 km/h (1 Bft) NW 313 0 min 0,000 mm 0,0 UV-I 0 W/m 8,8 C 10,9 C 3,2 km/h (1 Bft) 92,00 %
21.03.2017 21:10 11,1 C 87 % 1009,5 hPa 0,0 l/m 2,3 km/h (1 Bft) NW 313 0 min 0,000 mm 0,0 UV-I 0 W/m 9,0 C 11,1 C 4,8 km/h (1 Bft) 98,00 %
21.03.2017 21:12 11,1 C 87 % 1009,5 hPa 0,0 l/m 2,0 km/h (1 Bft) NW 313 0 min 0,000 mm 0,0 UV-I 0 W/m 9,0 C 11,1 C 3,2 km/h (1 Bft) 96,23 %
21.03.2017 21:14 11,1 C 87 % 1009,5 hPa 0,0 l/m 2,2 km/h (1 Bft) NW 313 0 min 0,000 mm 0,0 UV-I 0 W/m 9,0 C 11,1 C 4,8 km/h (1 Bft) 94,74 %
21.03.2017 21:16 11,2 C 87 % 1009,5 hPa 0,0 l/m 1,4 km/h (1 Bft) NW 313 0 min 0,000 mm 0,0 UV-I 0 W/m 9,1 C 11,2 C 3,2 km/h (1 Bft) 94,34 %
21.03.2017 21:18 11,2 C 87 % 1009,5 hPa 0,0 l/m 1,2 km/h (1 Bft) NW 313 0 min 0,000 mm 0,0 UV-I 0 W/m 9,1 C 11,2 C 3,2 km/h (1 Bft) 95,74 %
21.03.2017 21:20 11,2 C 86 % 1009,5 hPa 0,0 l/m 1,5 km/h (1 Bft) NW 313 0 min 0,000 mm 0,0 UV-I 0 W/m 8,9 C 11,2 C 3,2 km/h (1 Bft) 92,68 %
21.03.2017 21:22 11,2 C 86 % 1009,6 hPa 0,0 l/m 0,6 km/h (0 Bft) NW 313 0 min 0,000 mm 0,0 UV-I 0 W/m 8,9 C 11,2 C 1,6 km/h (1 Bft) 96,23 %
21.03.2017 21:24 11,3 C 86 % 1009,6 hPa 0,0 l/m 1,5 km/h (1 Bft) NW 313 0 min 0,000 mm 0,0 UV-I 0 W/m 9,0 C 11,3 C 3,2 km/h (1 Bft) 97,87 %
21.03.2017 21:26 11,3 C 86 % 1009,6 hPa 0,0 l/m 1,1 km/h (1 Bft) NW 313 0 min 0,000 mm 0,0 UV-I 0 W/m 9,0 C 11,3 C 3,2 km/h (1 Bft) 97,37 %
21.03.2017 21:28 11,3 C 86 % 1009,6 hPa 0,0 l/m 1,7 km/h (1 Bft) NW 313 0 min 0,000 mm 0,0 UV-I 0 W/m 9,0 C 11,3 C 4,8 km/h (1 Bft) 91,67 %
21.03.2017 21:30 11,3 C 85 % 1009,5 hPa 0,0 l/m 0,4 km/h (0 Bft) NW 312 0 min 0,000 mm 0,0 UV-I 0 W/m 8,9 C 11,3 C 3,2 km/h (1 Bft) 98,18 %
21.03.2017 21:32 11,3 C 85 % 1009,5 hPa 0,0 l/m 2,1 km/h (1 Bft) NW 311 0 min 0,000 mm 0,0 UV-I 0 W/m 8,9 C 11,3 C 3,2 km/h (1 Bft) 96,00 %
21.03.2017 21:34 11,4 C 85 % 1009,5 hPa 0,0 l/m 1,6 km/h (1 Bft) NW 311 0 min 0,000 mm 0,0 UV-I 0 W/m 9,0 C 11,4 C 3,2 km/h (1 Bft) 94,34 %
21.03.2017 21:36 11,4 C 85 % 1009,6 hPa 0,0 l/m 2,5 km/h (1 Bft) NW 311 0 min 0,000 mm 0,0 UV-I 0 W/m 9,0 C 11,4 C 3,2 km/h (1 Bft) 92,00 %
21.03.2017 21:38 11,3 C 85 % 1009,6 hPa 0,0 l/m 2,0 km/h (1 Bft) NW 311 0 min 0,000 mm 0,0 UV-I 0 W/m 8,9 C 11,3 C 3,2 km/h (1 Bft) 91,67 %
21.03.2017 21:40 11,3 C 85 % 1009,7 hPa 0,0 l/m 2,0 km/h (1 Bft) NW 311 0 min 0,000 mm 0,0 UV-I 0 W/m 8,9 C 11,3 C 3,2 km/h (1 Bft) 92,86 %
21.03.2017 21:42 11,3 C 85 % 1009,7 hPa 0,0 l/m 2,6 km/h (1 Bft) NW 311 0 min 0,000 mm 0,0 UV-I 0 W/m 8,9 C 11,3 C 4,8 km/h (1 Bft) 100,00 %
21.03.2017 21:44 11,3 C 86 % 1009,7 hPa 0,0 l/m 2,9 km/h (1 Bft) NW 308 0 min 0,000 mm 0,0 UV-I 0 W/m 9,0 C 11,3 C 4,8 km/h (1 Bft) 100,00 %
21.03.2017 21:46 11,3 C 86 % 1009,7 hPa 0,0 l/m 2,3 km/h (1 Bft) NW 308 0 min 0,000 mm 0,0 UV-I 0 W/m 9,0 C 11,3 C 3,2 km/h (1 Bft) 97,87 %
21.03.2017 21:48 11,2 C 86 % 1009,7 hPa 0,0 l/m 1,7 km/h (1 Bft) NW 308 0 min 0,000 mm 0,0 UV-I 0 W/m 8,9 C 11,2 C 3,2 km/h (1 Bft) 97,56 %
21.03.2017 21:50 11,2 C 87 % 1009,7 hPa 0,0 l/m 1,3 km/h (1 Bft) NW 308 0 min 0,000 mm 0,0 UV-I 0 W/m 9,1 C 11,2 C 3,2 km/h (1 Bft) 97,87 %
21.03.2017 21:52 11,2 C 87 % 1009,8 hPa 0,0 l/m 3,3 km/h (1 Bft) NW 304 0 min 0,000 mm 0,0 UV-I 0 W/m 9,1 C 11,2 C 4,8 km/h (1 Bft) 100,00 %
21.03.2017 21:54 11,2 C 87 % 1009,7 hPa 0,0 l/m 3,7 km/h (1 Bft) W-NW 290 0 min 0,000 mm 0,0 UV-I 0 W/m 9,1 C 11,2 C 4,8 km/h (1 Bft) 96,00 %
21.03.2017 21:56 11,1 C 87 % 1009,8 hPa 0,0 l/m 3,3 km/h (1 Bft) SW 227 0 min 0,000 mm 0,0 UV-I 0 W/m 9,0 C 11,1 C 6,4 km/h (2 Bft) 95,74 %
21.03.2017 21:58 11,1 C 87 % 1009,7 hPa 0,0 l/m 4,0 km/h (1 Bft) SW 227 0 min 0,000 mm 0,0 UV-I 0 W/m 9,0 C 11,1 C 6,4 km/h (2 Bft) 95,74 %
21.03.2017 22:00 11,1 C 87 % 1009,8 hPa 0,0 l/m 3,6 km/h (1 Bft) SW 231 0 min 0,000 mm 0,0 UV-I 0 W/m 9,0 C 11,1 C 4,8 km/h (1 Bft) 97,56 %
21.03.2017 22:03 11,1 C 87 % 1009,8 hPa 0,0 l/m 3,5 km/h (1 Bft) W 259 0 min 0,000 mm 0,0 UV-I 0 W/m 9,0 C 11,1 C 6,4 km/h (2 Bft) 94,12 %
21.03.2017 22:04 11,1 C 87 % 1009,8 hPa 0,0 l/m 4,9 km/h (1 Bft) W-SW 239 0 min 0,000 mm 0,0 UV-I 0 W/m 9,0 C 11,1 C 6,4 km/h (2 Bft) 100,00 %
21.03.2017 22:06 11,1 C 87 % 1009,8 hPa 0,0 l/m 3,9 km/h (1 Bft) W-SW 238 0 min 0,000 mm 0,0 UV-I 0 W/m 9,0 C 11,1 C 6,4 km/h (2 Bft) 97,87 %
21.03.2017 22:08 11,1 C 87 % 1009,8 hPa 0,0 l/m 3,8 km/h (1 Bft) W-SW 238 0 min 0,000 mm 0,0 UV-I 0 W/m 9,0 C 11,1 C 6,4 km/h (2 Bft) 97,73 %
21.03.2017 22:10 11,1 C 88 % 1009,8 hPa 0,0 l/m 3,5 km/h (1 Bft) W-SW 238 0 min 0,000 mm 0,0 UV-I 0 W/m 9,2 C 11,1 C 4,8 km/h (1 Bft) 98,00 %
21.03.2017 22:12 11,1 C 88 % 1009,8 hPa 0,0 l/m 1,7 km/h (1 Bft) W-SW 238 0 min 0,000 mm 0,0 UV-I 0 W/m 9,2 C 11,1 C 3,2 km/h (1 Bft) 100,00 %
21.03.2017 22:14 11,0 C 88 % 1009,8 hPa 0,0 l/m 3,6 km/h (1 Bft) W-SW 238 0 min 0,000 mm 0,0 UV-I 0 W/m 9,1 C 11,0 C 4,8 km/h (1 Bft) 97,30 %
21.03.2017 22:16 11,0 C 88 % 1009,8 hPa 0,0 l/m 4,0 km/h (1 Bft) SW 236 0 min 0,000 mm 0,0 UV-I 0 W/m 9,1 C 11,0 C 6,4 km/h (2 Bft) 98,08 %
21.03.2017 22:18 11,0 C 88 % 1009,8 hPa 0,0 l/m 2,9 km/h (1 Bft) SW 236 0 min 0,000 mm 0,0 UV-I 0 W/m 9,1 C 11,0 C 4,8 km/h (1 Bft) 97,62 %
21.03.2017 22:20 11,0 C 88 % 1009,8 hPa 0,0 l/m 4,0 km/h (1 Bft) SW 236 0 min 0,000 mm 0,0 UV-I 0 W/m 9,1 C 11,0 C 4,8 km/h (1 Bft) 97,56 %
21.03.2017 22:22 10,9 C 88 % 1009,9 hPa 0,0 l/m 1,9 km/h (1 Bft) SW 236 0 min 0,000 mm 0,0 UV-I 0 W/m 9,0 C 10,9 C 4,8 km/h (1 Bft) 96,72 %
21.03.2017 22:24 10,9 C 89 % 1009,9 hPa 0,0 l/m 2,5 km/h (1 Bft) SW 236 0 min 0,000 mm 0,0 UV-I 0 W/m 9,2 C 10,9 C 4,8 km/h (1 Bft) 97,56 %
21.03.2017 22:26 10,9 C 89 % 1009,9 hPa 0,0 l/m 1,7 km/h (1 Bft) SW 236 0 min 0,000 mm 0,0 UV-I 0 W/m 9,2 C 10,9 C 3,2 km/h (1 Bft) 100,00 %
21.03.2017 22:28 10,9 C 89 % 1009,9 hPa 0,0 l/m 2,4 km/h (1 Bft) SW 236 0 min 0,000 mm 0,0 UV-I 0 W/m 9,2 C 10,9 C 4,8 km/h (1 Bft) 100,00 %
21.03.2017 22:30 10,9 C 89 % 1009,9 hPa 0,0 l/m 1,1 km/h (1 Bft) SW 236 0 min 0,000 mm 0,0 UV-I 0 W/m 9,2 C 10,9 C 3,2 km/h (1 Bft) 100,00 %
21.03.2017 22:32 10,8 C 89 % 1010,0 hPa 0,0 l/m 2,4 km/h (1 Bft) SW 236 0 min 0,000 mm 0,0 UV-I 0 W/m 9,1 C 10,8 C 4,8 km/h (1 Bft) 96,00 %
21.03.2017 22:34 10,8 C 90 % 1010,0 hPa 0,0 l/m 3,9 km/h (1 Bft) SW 236 0 min 0,000 mm 0,0 UV-I 0 W/m 9,2 C 10,8 C 4,8 km/h (1 Bft) 94,34 %
21.03.2017 22:36 10,8 C 90 % 1010,0 hPa 0,0 l/m 1,8 km/h (1 Bft) SW 236 0 min 0,000 mm 0,0 UV-I 0 W/m 9,2 C 10,8 C 4,8 km/h (1 Bft) 100,00 %
21.03.2017 22:38 10,8 C 90 % 1010,0 hPa 0,0 l/m 1,2 km/h (1 Bft) SW 236 0 min 0,000 mm 0,0 UV-I 0 W/m 9,2 C 10,8 C 3,2 km/h (1 Bft) 92,45 %
21.03.2017 22:40 10,7 C 90 % 1010,0 hPa 0,0 l/m 2,2 km/h (1 Bft) SW 236 0 min 0,000 mm 0,0 UV-I 0 W/m 9,1 C 10,7 C 3,2 km/h (1 Bft) 100,00 %
21.03.2017 22:42 10,7 C 90 % 1010,0 hPa 0,0 l/m 1,7 km/h (1 Bft) SW 236 0 min 0,000 mm 0,0 UV-I 0 W/m 9,1 C 10,7 C 3,2 km/h (1 Bft) 92,98 %
21.03.2017 22:44 10,7 C 90 % 1010,0 hPa 0,0 l/m 0,3 km/h (0 Bft) SW 236 0 min 0,000 mm 0,0 UV-I 0 W/m 9,1 C 10,7 C 1,6 km/h (1 Bft) 97,56 %
21.03.2017 22:46 10,7 C 91 % 1010,0 hPa 0,0 l/m 0,4 km/h (0 Bft) SW 236 0 min 0,000 mm 0,0 UV-I 0 W/m 9,3 C 10,7 C 1,6 km/h (1 Bft) 94,34 %
21.03.2017 22:48 10,6 C 91 % 1010,0 hPa 0,0 l/m 0,0 km/h (0 Bft) SW 236 0 min 0,000 mm 0,0 UV-I 0 W/m 9,2 C 10,6 C 0,0 km/h (0 Bft) 95,12 %
21.03.2017 22:50 10,6 C 91 % 1009,9 hPa 0,2 l/m 0,1 km/h (0 Bft) SW 236 0 min 0,000 mm 0,0 UV-I 0 W/m 9,2 C 10,6 C 1,6 km/h (1 Bft) 94,34 %
21.03.2017 22:52 10,5 C 92 % 1009,9 hPa 0,0 l/m 1,7 km/h (1 Bft) S 171 0 min 0,000 mm 0,0 UV-I 0 W/m 9,3 C 10,5 C 6,4 km/h (2 Bft) 95,45 %
21.03.2017 22:54 10,5 C 92 % 1009,9 hPa 0,0 l/m 1,2 km/h (1 Bft) S 171 0 min 0,000 mm 0,0 UV-I 0 W/m 9,3 C 10,5 C 3,2 km/h (1 Bft) 98,00 %
21.03.2017 22:56 10,5 C 92 % 1010,0 hPa 0,0 l/m 2,0 km/h (1 Bft) S 173 0 min 0,000 mm 0,0 UV-I 0 W/m 9,3 C 10,5 C 6,4 km/h (2 Bft) 97,44 %
21.03.2017 22:58 10,6 C 91 % 1009,9 hPa 0,0 l/m 1,7 km/h (1 Bft) S 173 0 min 0,000 mm 0,0 UV-I 0 W/m 9,2 C 10,6 C 3,2 km/h (1 Bft) 96,00 %
21.03.2017 23:00 10,6 C 91 % 1009,9 hPa 0,0 l/m 1,1 km/h (1 Bft) S 173 0 min 0,000 mm 0,0 UV-I 0 W/m 9,2 C 10,6 C 3,2 km/h (1 Bft) 96,36 %
21.03.2017 23:02 10,6 C 91 % 1010,0 hPa 0,0 l/m 1,0 km/h (0 Bft) S 173 0 min 0,000 mm 0,0 UV-I 0 W/m 9,2 C 10,6 C 3,2 km/h (1 Bft) 100,00 %
21.03.2017 23:04 10,5 C 92 % 1010,0 hPa 0,0 l/m 0,5 km/h (0 Bft) S 173 0 min 0,000 mm 0,0 UV-I 0 W/m 9,3 C 10,5 C 1,6 km/h (1 Bft) 93,85 %
21.03.2017 23:06 10,5 C 92 % 1010,0 hPa 0,0 l/m 0,6 km/h (0 Bft) S 173 0 min 0,000 mm 0,0 UV-I 0 W/m 9,3 C 10,5 C 3,2 km/h (1 Bft) 97,87 %
21.03.2017 23:08 10,5 C 92 % 1010,0 hPa 0,0 l/m 1,0 km/h (0 Bft) S 173 0 min 0,000 mm 0,0 UV-I 0 W/m 9,3 C 10,5 C 3,2 km/h (1 Bft) 95,74 %
21.03.2017 23:10 10,5 C 92 % 1010,0 hPa 0,0 l/m 0,0 km/h (0 Bft) S 173 0 min 0,000 mm 0,0 UV-I 0 W/m 9,3 C 10,5 C 0,0 km/h (0 Bft) 92,11 %
21.03.2017 23:12 10,4 C 92 % 1010,0 hPa 0,0 l/m 1,6 km/h (1 Bft) S 173 0 min 0,000 mm 0,0 UV-I 0 W/m 9,2 C 10,4 C 3,2 km/h (1 Bft) 96,23 %
21.03.2017 23:14 10,4 C 92 % 1010,0 hPa 0,0 l/m 0,7 km/h (0 Bft) S 173 0 min 0,000 mm 0,0 UV-I 0 W/m 9,2 C 10,4 C 1,6 km/h (1 Bft) 92,68 %
21.03.2017 23:16 10,4 C 92 % 1010,0 hPa 0,0 l/m 0,0 km/h (0 Bft) S 173 0 min 0,000 mm 0,0 UV-I 0 W/m 9,2 C 10,4 C 0,0 km/h (0 Bft) 92,73 %
21.03.2017 23:18 10,4 C 92 % 1010,0 hPa 0,0 l/m 0,0 km/h (0 Bft) S 173 0 min 0,000 mm 0,0 UV-I 0 W/m 9,2 C 10,4 C 0,0 km/h (0 Bft) 94,74 %
21.03.2017 23:20 10,4 C 92 % 1010,0 hPa 0,2 l/m 0,0 km/h (0 Bft) S 173 0 min 0,000 mm 0,0 UV-I 0 W/m 9,2 C 10,4 C 0,0 km/h (0 Bft) 94,00 %
21.03.2017 23:22 10,4 C 92 % 1010,0 hPa 0,0 l/m 0,0 km/h (0 Bft) S 173 0 min 0,000 mm 0,0 UV-I 0 W/m 9,2 C 10,4 C 0,0 km/h (0 Bft) 92,00 %
21.03.2017 23:24 10,3 C 92 % 1010,0 hPa 0,0 l/m 0,0 km/h (0 Bft) S 173 0 min 0,000 mm 0,0 UV-I 0 W/m 9,1 C 10,3 C 0,0 km/h (0 Bft) 97,56 %
21.03.2017 23:26 10,3 C 93 % 1010,0 hPa 0,0 l/m 0,0 km/h (0 Bft) S 173 0 min 0,000 mm 0,0 UV-I 0 W/m 9,2 C 10,3 C 0,0 km/h (0 Bft) 93,88 %
21.03.2017 23:28 10,3 C 93 % 1010,1 hPa 0,0 l/m 0,1 km/h (0 Bft) S 173 0 min 0,000 mm 0,0 UV-I 0 W/m 9,2 C 10,3 C 1,6 km/h (1 Bft) 91,49 %
21.03.2017 23:30 10,3 C 93 % 1010,1 hPa 0,0 l/m 0,1 km/h (0 Bft) S 173 0 min 0,000 mm 0,0 UV-I 0 W/m 9,2 C 10,3 C 1,6 km/h (1 Bft) 96,00 %
21.03.2017 23:32 10,3 C 93 % 1010,0 hPa 0,0 l/m 0,3 km/h (0 Bft) S 173 0 min 0,000 mm 0,0 UV-I 0 W/m 9,2 C 10,3 C 1,6 km/h (1 Bft) 95,74 %
21.03.2017 23:34 10,2 C 93 % 1010,0 hPa 0,0 l/m 1,5 km/h (1 Bft) S 173 0 min 0,000 mm 0,0 UV-I 0 W/m 9,1 C 10,2 C 3,2 km/h (1 Bft) 92,31 %
21.03.2017 23:36 10,2 C 93 % 1010,0 hPa 0,0 l/m 2,1 km/h (1 Bft) S 173 0 min 0,000 mm 0,0 UV-I 0 W/m 9,1 C 10,2 C 3,2 km/h (1 Bft) 92,00 %
21.03.2017 23:38 10,1 C 94 % 1009,9 hPa 0,0 l/m 1,0 km/h (0 Bft) S 173 0 min 0,000 mm 0,0 UV-I 0 W/m 9,2 C 10,1 C 3,2 km/h (1 Bft) 94,00 %
21.03.2017 23:40 10,1 C 94 % 1009,9 hPa 0,0 l/m 1,5 km/h (1 Bft) S 173 0 min 0,000 mm 0,0 UV-I 0 W/m 9,2 C 10,1 C 3,2 km/h (1 Bft) 93,62 %
21.03.2017 23:42 10,1 C 94 % 1009,9 hPa 0,0 l/m 0,1 km/h (0 Bft) S 173 0 min 0,000 mm 0,0 UV-I 0 W/m 9,2 C 10,1 C 1,6 km/h (1 Bft) 94,34 %
21.03.2017 23:44 10,1 C 94 % 1009,9 hPa 0,0 l/m 0,0 km/h (0 Bft) S 173 0 min 0,000 mm 0,0 UV-I 0 W/m 9,2 C 10,1 C 0,0 km/h (0 Bft) 97,87 %
21.03.2017 23:46 10,1 C 94 % 1009,9 hPa 0,0 l/m 0,0 km/h (0 Bft) S 173 0 min 0,000 mm 0,0 UV-I 0 W/m 9,2 C 10,1 C 0,0 km/h (0 Bft) 94,74 %
21.03.2017 23:48 10,1 C 94 % 1009,9 hPa 0,0 l/m 0,0 km/h (0 Bft) S 173 0 min 0,000 mm 0,0 UV-I 0 W/m 9,2 C 10,1 C 0,0 km/h (0 Bft) 100,00 %
21.03.2017 23:50 10,1 C 94 % 1009,9 hPa 0,0 l/m 0,0 km/h (0 Bft) S 173 0 min 0,000 mm 0,0 UV-I 0 W/m 9,2 C 10,1 C 1,6 km/h (1 Bft) 95,74 %
21.03.2017 23:52 10,1 C 94 % 1009,9 hPa 0,0 l/m 0,0 km/h (0 Bft) S 173 0 min 0,000 mm 0,0 UV-I 0 W/m 9,2 C 10,1 C 0,0 km/h (0 Bft) 100,00 %
21.03.2017 23:54 10,1 C 94 % 1009,9 hPa 0,0 l/m 0,0 km/h (0 Bft) S 173 0 min 0,000 mm 0,0 UV-I 0 W/m 9,2 C 10,1 C 0,0 km/h (0 Bft) 98,00 %
21.03.2017 23:56 10,1 C 94 % 1009,9 hPa 0,0 l/m 0,0 km/h (0 Bft) S 173 0 min 0,000 mm 0,0 UV-I 0 W/m 9,2 C 10,1 C 0,0 km/h (0 Bft) 100,00 %
21.03.2017 23:58 10,1 C 94 % 1009,8 hPa 0,0 l/m 0,0 km/h (0 Bft) S 173 0 min 0,000 mm 0,0 UV-I 0 W/m 9,2 C 10,1 C 0,0 km/h (0 Bft) 98,00 %
_ Min-Zeit 00:14 12:48 16:02 - 16:48 - - - - - - 00:16 03:44 16:48 00:22
Minimum _ 6,7 C 64 % 1007,9 hPa - 0,0 km/h (0 Bft) - - - - - - 6,1 C 4,1 C 0,0 km/h (0 Bft) 87,23 %
_ Max-Zeit 15:02 00:24 07:12 22:50 03:44 - - 12:13 13:02 11:46 11:46 18:10 15:02 03:46 00:48
Maximum _ 15,2 C 97 % 1011,6 hPa 0,2 l/m 14,5 km/h
W-SW (3 Bft)
- - 3 min 0,280 mm 3,1 UV-I 840 W/m 9,7 C 15,2 C 22,5 km/h
SW (4 Bft)
100,00 %
Durchschnitt _ 11,1 C 82 % 1009,8 hPa #0,4 l/m 3,8 km/h (1 Bft) W-SW - #4:44 h #1,727 mm 1,6 UV-I 253 W/m 8,0 C 10,7 C 6,8 km/h (2 Bft) 96,69 %